KJ6MC Weather Reports


time (UTC)temp
C
wind
direction
speed
KPH
gust
KPH
rain 1hr
cm
rain 24hr
cm
rain mn
cm
humidity
%
barometer
mb
20260508055822 15 146 1.6 4.8 0.00 0.00 0.00 85 1015.2
20260508055803 15 171 1.6 4.8 0.00 0.00 0.00 85 1015.2
20260508055702 15 146 1.6 4.8 0.00 0.00 0.00 85 1015.1
20260508055603 15 211 1.6 4.8 0.00 0.00 0.00 85 1015.1
20260508055503 15 239 1.6 4.8 0.00 0.00 0.00 85 1015.1
20260508055402 15 221 1.6 4.8 0.00 0.00 0.00 85 1015.1
20260508055322 15 203 1.6 6.4 0.00 0.00 0.00 85 1015.1
20260508055309 15 239 1.6 6.4 0.00 0.00 0.00 85 1015.1
20260508055306 15 148 1.6 6.4 0.00 0.00 0.00 85 1015.1
20260508055203 15 148 1.6 6.4 0.00 0.00 0.00 85 1015.1
20260508055152 15 239 1.6 6.4 0.00 0.00 0.00 85 1015.2
20260508055002 15 239 1.6 6.4 0.00 0.00 0.00 85 1015.1
20260508054933 15 240 1.6 6.4 0.00 0.00 0.00 85 1015.1
20260508054803 15 239 1.6 6.4 0.00 0.00 0.00 85 1015.1
20260508054703 15 201 1.6 6.4 0.00 0.00 0.00 84 1015.1
20260508054559 15 203 1.6 6.4 0.00 0.00 0.00 84 1015.1
20260508054459 15 205 1.6 8.0 0.00 0.00 0.00 84 1015.1
20260508054400 15 211 3.2 8.0 0.00 0.00 0.00 84 1015.1
20260508054322 15 212 3.2 8.0 0.00 0.00 0.00 84 1015.1
20260508054259 15 158 3.2 8.0 0.00 0.00 0.00 84 1015.1
20260508054158 15 248 3.2 8.0 0.00 0.00 0.00 84 1015.1
20260508054059 15 248 3.2 8.0 0.00 0.00 0.00 84 1015.1
20260508053958 15 248 3.2 8.0 0.00 0.00 0.00 84 1015.1
20260508053859 16 242 3.2 8.0 0.00 0.00 0.00 84 1015.1
20260508053821 16 205 4.8 8.0 0.00 0.00 0.00 83 1015.1
20260508053758 16 143 4.8 12.9 0.00 0.00 0.00 83 1015.1
20260508053659 16 225 4.8 12.9 0.00 0.00 0.00 83 1015.0
20260508053559 16 222 4.8 12.9 0.00 0.00 0.00 83 1015.0
20260508053459 16 210 4.8 12.9 0.00 0.00 0.00 83 1015.0
20260508053359 16 146 4.8 12.9 0.00 0.00 0.00 83 1015.0
20260508053318 16 203 4.8 12.9 0.00 0.00 0.00 83 1015.0
20260508053300 16 238 4.8 12.9 0.00 0.00 0.00 83 1015.0
20260508053159 16 235 4.8 12.9 0.00 0.00 0.00 83 1015.0
20260508053058 16 219 4.8 12.9 0.00 0.00 0.00 83 1015.0
20260508052959 16 233 4.8 12.9 0.00 0.00 0.00 83 1015.0
20260508052859 16 250 4.8 12.9 0.00 0.00 0.00 83 1015.0
20260508052818 16 226 4.8 12.9 0.00 0.00 0.00 83 1015.0
20260508052759 16 260 4.8 11.3 0.00 0.00 0.00 82 1015.0
20260508052655 16 211 4.8 11.3 0.00 0.00 0.00 82 1015.0
20260508052555 16 225 4.8 16.1 0.00 0.00 0.00 82 1015.0
20260508052456 16 207 4.8 16.1 0.00 0.00 0.00 82 1015.0
20260508052357 16 250 4.8 16.1 0.00 0.00 0.00 82 1015.0
20260508052319 16 243 4.8 16.1 0.00 0.00 0.00 82 1015.0
20260508052255 16 232 4.8 16.1 0.00 0.00 0.00 82 1015.0
20260508052155 16 250 4.8 16.1 0.00 0.00 0.00 82 1015.0
20260508052055 16 230 4.8 16.1 0.00 0.00 0.00 82 1015.0
20260508051955 16 245 4.8 16.1 0.00 0.00 0.00 82 1015.0
20260508051856 16 229 4.8 16.1 0.00 0.00 0.00 82 1015.0
20260508051820 16 238 4.8 16.1 0.00 0.00 0.00 82 1015.0
20260508051754 16 239 4.8 16.1 0.00 0.00 0.00 81 1015.0
20260508051655 16 248 4.8 16.1 0.00 0.00 0.00 81 1015.1
20260508051555 16 242 4.8 12.9 0.00 0.00 0.00 81 1015.1
20260508051454 16 245 4.8 12.9 0.00 0.00 0.00 81 1015.1
20260508051355 16 231 3.2 12.9 0.00 0.00 0.00 81 1015.1
20260508051329 16 243 4.8 12.9 0.00 0.00 0.00 81 1015.0
20260508051255 16 248 4.8 12.9 0.00 0.00 0.00 81 1015.0
20260508051155 16 276 3.2 12.9 0.00 0.00 0.00 81 1015.0
20260508051055 16 240 3.2 12.9 0.00 0.00 0.00 81 1015.0
20260508050955 16 238 4.8 12.9 0.00 0.00 0.00 81 1015.0
20260508050856 16 240 4.8 12.9 0.00 0.00 0.00 81 1015.0
20260508050819 16 253 4.8 12.9 0.00 0.00 0.00 81 1014.9
20260508050750 16 233 4.8 12.9 0.00 0.00 0.00 81 1014.9
20260508050651 16 233 4.8 12.9 0.00 0.00 0.00 81 1015.0
20260508050551 16 242 4.8 12.9 0.00 0.00 0.00 80 1014.9
20260508050539 16 267 6.4 16.1 0.00 0.00 0.00 80 1014.9
20260508050451 16 233 4.8 12.9 0.00 0.00 0.00 80 1014.9
20260508050427 16 233 6.4 12.9 0.00 0.00 0.00 80 1014.8
20260508050252 16 238 6.4 17.7 0.00 0.00 0.00 80 1014.9
20260508050150 17 232 6.4 17.7 0.00 0.00 0.00 80 1014.9
20260508050051 17 239 6.4 17.7 0.00 0.00 0.00 80 1014.8
20260508045951 17 242 6.4 17.7 0.00 0.00 0.00 80 1014.8
20260508045851 17 248 6.4 17.7 0.00 0.00 0.00 80 1014.9
20260508045816 17 248 6.4 17.7 0.00 0.00 0.00 80 1014.9
20260508045751 17 235 6.4 17.7 0.00 0.00 0.00 80 1014.9
20260508045651 17 238 6.4 17.7 0.00 0.00 0.00 80 1014.8
20260508045550 17 241 6.4 17.7 0.00 0.00 0.00 80 1014.8
20260508045534 17 245 6.4 17.7 0.00 0.00 0.00 80 1014.8
20260508045451 17 224 8.0 17.7 0.00 0.00 0.00 80 1014.8
20260508045428 17 240 8.0 17.7 0.00 0.00 0.00 80 1014.8
20260508045251 17 243 6.4 17.7 0.00 0.00 0.00 80 1014.8
20260508045151 17 232 6.4 17.7 0.00 0.00 0.00 79 1014.8
20260508045051 17 233 8.0 17.7 0.00 0.00 0.00 79 1014.8
20260508044951 17 255 8.0 17.7 0.00 0.00 0.00 79 1014.8
20260508044847 17 277 6.4 16.1 0.00 0.00 0.00 79 1014.8
20260508044812 17 211 8.0 16.1 0.00 0.00 0.00 79 1014.7
20260508044747 17 235 8.0 16.1 0.00 0.00 0.00 79 1014.7
20260508044649 17 222 6.4 16.1 0.00 0.00 0.00 79 1014.8
20260508044547 17 225 6.4 16.1 0.00 0.00 0.00 79 1014.8
20260508044447 17 239 6.4 16.1 0.00 0.00 0.00 79 1014.7
20260508044347 17 208 6.4 16.1 0.00 0.00 0.00 79 1014.7
20260508044312 17 214 4.8 16.1 0.00 0.00 0.00 79 1014.7
20260508044247 17 205 4.8 16.1 0.00 0.00 0.00 79 1014.7
20260508044147 17 236 4.8 12.9 0.00 0.00 0.00 79 1014.8
20260508044047 17 240 4.8 12.9 0.00 0.00 0.00 79 1014.7
20260508043947 17 239 4.8 12.9 0.00 0.00 0.00 79 1014.7
20260508043847 17 253 4.8 17.7 0.00 0.00 0.00 79 1014.7
20260508043812 17 248 4.8 17.7 0.00 0.00 0.00 79 1014.7
20260508043747 17 250 4.8 17.7 0.00 0.00 0.00 79 1014.7
20260508043650 17 243 4.8 17.7 0.00 0.00 0.00 79 1014.7
20260508043547 17 232 6.4 17.7 0.00 0.00 0.00 79 1014.7
20260508043447 17 243 6.4 17.7 0.00 0.00 0.00 79 1014.7
20260508043347 17 236 6.4 17.7 0.00 0.00 0.00 79 1014.7
20260508043314 17 252 6.4 17.7 0.00 0.00 0.00 79 1014.7
20260508043247 17 239 6.4 17.7 0.00 0.00 0.00 79 1014.7
20260508043147 17 144 6.4 17.7 0.00 0.00 0.00 79 1014.6
20260508043047 17 194 8.0 17.7 0.00 0.00 0.00 79 1014.6
20260508042944 17 214 8.0 17.7 0.00 0.00 0.00 79 1014.6
20260508042843 17 223 8.0 17.7 0.00 0.00 0.00 79 1014.6
20260508042812 17 238 6.4 17.7 0.00 0.00 0.00 78 1014.6
20260508042743 17 219 6.4 17.7 0.00 0.00 0.00 78 1014.6
20260508042643 17 248 8.0 17.7 0.00 0.00 0.00 78 1014.5
20260508042543 18 240 6.4 17.7 0.00 0.00 0.00 78 1014.6
20260508042443 18 242 6.4 17.7 0.00 0.00 0.00 78 1014.6
20260508042343 18 225 6.4 17.7 0.00 0.00 0.00 78 1014.6
20260508042314 18 207 6.4 17.7 0.00 0.00 0.00 78 1014.6
20260508042243 18 259 6.4 12.9 0.00 0.00 0.00 78 1014.6
20260508042144 18 259 6.4 12.9 0.00 0.00 0.00 78 1014.6
20260508042043 18 218 6.4 14.5 0.00 0.00 0.00 78 1014.5
20260508041943 18 232 6.4 14.5 0.00 0.00 0.00 78 1014.6
20260508041843 18 239 6.4 14.5 0.00 0.00 0.00 78 1014.5
20260508041812 18 232 6.4 14.5 0.00 0.00 0.00 78 1014.5
20260508041743 18 229 6.4 14.5 0.00 0.00 0.00 78 1014.5
20260508041643 18 241 6.4 14.5 0.00 0.00 0.00 78 1014.5
20260508041544 18 233 6.4 14.5 0.00 0.00 0.00 78 1014.5
20260508041443 18 236 6.4 14.5 0.00 0.00 0.00 78 1014.5
20260508041343 18 231 6.4 17.7 0.00 0.00 0.00 78 1014.5
20260508041314 18 250 6.4 17.7 0.00 0.00 0.00 78 1014.5
20260508041243 18 250 6.4 17.7 0.00 0.00 0.00 78 1014.5
20260508041143 18 257 6.4 17.7 0.00 0.00 0.00 78 1014.5
20260508041040 18 226 8.0 17.7 0.00 0.00 0.00 78 1014.5
20260508040938 18 248 8.0 17.7 0.00 0.00 0.00 78 1014.5
20260508040839 18 242 8.0 17.7 0.00 0.00 0.00 77 1014.5
20260508040813 18 228 8.0 17.7 0.00 0.00 0.00 77 1014.5
20260508040739 18 243 8.0 17.7 0.00 0.00 0.00 77 1014.5
20260508040639 18 252 8.0 17.7 0.00 0.00 0.00 77 1014.5
20260508040539 18 242 8.0 17.7 0.00 0.00 0.00 77 1014.4
20260508040439 18 228 8.0 17.7 0.00 0.00 0.00 77 1014.4
20260508040338 18 231 8.0 19.3 0.00 0.00 0.00 77 1014.4
20260508040310 18 214 8.0 19.3 0.00 0.00 0.00 77 1014.4
20260508040239 18 236 8.0 19.3 0.00 0.00 0.00 77 1014.4
20260508040139 18 250 8.0 19.3 0.00 0.00 0.00 77 1014.4
20260508040039 18 239 6.4 19.3 0.00 0.00 0.00 77 1014.4
20260508040030 18 217 6.4 19.3 0.00 0.00 0.00 76 1014.4
20260508035939 18 259 6.4 19.3 0.00 0.00 0.00 77 1014.3
20260508035920 18 234 6.4 19.3 0.00 0.00 0.00 76 1014.4
20260508035739 18 274 6.4 19.3 0.00 0.00 0.00 76 1014.3
20260508035639 18 236 6.4 19.3 0.00 0.00 0.00 76 1014.3
20260508035538 19 246 6.4 19.3 0.00 0.00 0.00 76 1014.3
20260508035439 19 236 4.8 19.3 0.00 0.00 0.00 76 1014.3
20260508035338 19 273 4.8 16.1 0.00 0.00 0.00 76 1014.3
20260508035309 19 269 4.8 16.1 0.00 0.00 0.00 76 1014.3
20260508035239 19 238 4.8 16.1 0.00 0.00 0.00 76 1014.3
20260508035134 19 243 4.8 16.1 0.00 0.00 0.00 76 1014.3
20260508035035 19 249 4.8 16.1 0.00 0.00 0.00 76 1014.3
20260508034935 19 224 4.8 16.1 0.00 0.00 0.00 76 1014.3
20260508034836 19 236 4.8 16.1 0.00 0.00 0.00 76 1014.3
20260508034809 19 226 4.8 16.1 0.00 0.00 0.00 76 1014.3
20260508034735 19 242 4.8 16.1 0.00 0.00 0.00 76 1014.2
20260508034635 19 251 4.8 11.3 0.00 0.00 0.00 75 1014.3
20260508034540 19 219 6.4 19.3 0.00 0.00 0.00 75 1014.2
20260508034535 19 239 6.4 19.3 0.00 0.00 0.00 75 1014.2
20260508034435 19 222 6.4 19.3 0.00 0.00 0.00 75 1014.2
20260508034420 19 234 6.4 19.3 0.00 0.00 0.00 75 1014.2
20260508034235 19 243 6.4 19.3 0.00 0.00 0.00 75 1014.2
20260508034135 19 240 6.4 19.3 0.00 0.00 0.00 75 1014.2
20260508034035 19 243 8.0 19.3 0.00 0.00 0.00 75 1014.2
20260508033935 19 236 8.0 19.3 0.00 0.00 0.00 75 1014.2
20260508033835 19 217 8.0 19.3 0.00 0.00 0.00 74 1014.2
20260508033810 19 238 8.0 19.3 0.00 0.00 0.00 74 1014.2
20260508033735 19 239 8.0 19.3 0.00 0.00 0.00 74 1014.2
20260508033635 19 232 8.0 19.3 0.00 0.00 0.00 74 1014.2
20260508033536 19 235 6.4 16.1 0.00 0.00 0.00 74 1014.1
20260508033435 19 239 6.4 16.1 0.00 0.00 0.00 74 1014.1
20260508033335 20 233 6.4 16.1 0.00 0.00 0.00 74 1014.2
20260508033310 20 236 6.4 16.1 0.00 0.00 0.00 74 1014.2
20260508033232 20 236 6.4 16.1 0.00 0.00 0.00 74 1014.2
20260508033131 20 221 6.4 16.1 0.00 0.00 0.00 73 1014.2
20260508033031 20 217 4.8 16.1 0.00 0.00 0.00 73 1014.1
20260508032931 20 239 4.8 12.9 0.00 0.00 0.00 73 1014.1
20260508032831 20 208 3.2 12.9 0.00 0.00 0.00 73 1014.1
20260508032809 20 249 3.2 11.3 0.00 0.00 0.00 73 1014.1
20260508032731 20 238 3.2 11.3 0.00 0.00 0.00 73 1014.2
20260508032631 20 243 3.2 11.3 0.00 0.00 0.00 73 1014.2
20260508032531 20 243 3.2 11.3 0.00 0.00 0.00 73 1014.1
20260508032431 20 248 3.2 11.3 0.00 0.00 0.00 73 1014.1
20260508032332 20 215 3.2 8.0 0.00 0.00 0.00 73 1014.1
20260508032309 20 215 3.2 8.0 0.00 0.00 0.00 72 1014.1
20260508032231 20 229 3.2 8.0 0.00 0.00 0.00 72 1014.1
20260508032131 20 243 4.8 9.7 0.00 0.00 0.00 72 1014.1
20260508032031 20 236 4.8 14.5 0.00 0.00 0.00 72 1014.1
20260508031931 20 236 4.8 14.5 0.00 0.00 0.00 72 1014.1
20260508031831 20 240 4.8 14.5 0.00 0.00 0.00 72 1014.1
20260508031805 20 243 4.8 14.5 0.00 0.00 0.00 72 1014.1
20260508031731 20 232 4.8 14.5 0.00 0.00 0.00 72 1014.0
20260508031631 20 239 6.4 14.5 0.00 0.00 0.00 72 1014.0
20260508031530 20 228 6.4 14.5 0.00 0.00 0.00 72 1014.0
20260508031432 20 239 6.4 14.5 0.00 0.00 0.00 73 1014.0
20260508031329 20 239 8.0 14.5 0.00 0.00 0.00 72 1014.0
20260508031305 20 243 8.0 14.5 0.00 0.00 0.00 72 1014.0
20260508031227 20 235 6.4 14.5 0.00 0.00 0.00 72 1014.0
20260508031031 21 248 8.0 19.3 0.00 0.00 0.00 72 1013.9
20260508030927 21 238 8.0 19.3 0.00 0.00 0.00 72 1013.9
20260508030827 21 243 8.0 19.3 0.00 0.00 0.00 72 1013.9
20260508030804 21 221 8.0 19.3 0.00 0.00 0.00 72 1013.9
20260508030727 21 214 8.0 19.3 0.00 0.00 0.00 72 1013.9
20260508030628 21 225 8.0 19.3 0.00 0.00 0.00 72 1013.9
20260508030528 21 232 8.0 19.3 0.00 0.00 0.00 72 1013.9
20260508030427 21 229 8.0 19.3 0.00 0.00 0.00 72 1014.0
20260508030327 21 255 6.4 19.3 0.00 0.00 0.00 72 1013.9
20260508030304 21 239 6.4 19.3 0.00 0.00 0.00 72 1013.9
20260508030228 21 236 6.4 19.3 0.00 0.00 0.00 72 1013.9
20260508030128 21 242 6.4 19.3 0.00 0.00 0.00 71 1013.9
20260508030027 21 256 6.4 16.1 0.00 0.00 0.00 71 1013.9
20260508025927 21 197 6.4 17.7 0.00 0.00 0.00 71 1013.9
20260508025827 21 253 6.4 17.7 0.00 0.00 0.00 71 1013.9
20260508025809 21 216 6.4 17.7 0.00 0.00 0.00 71 1013.9
20260508025726 22 213 6.4 17.7 0.00 0.00 0.00 71 1013.9
20260508025627 22 148 6.4 17.7 0.00 0.00 0.00 71 1013.9
20260508025527 22 201 6.4 17.7 0.00 0.00 0.00 70 1013.9
20260508025423 22 233 6.4 17.7 0.00 0.00 0.00 70 1013.9
20260508025323 22 233 6.4 17.7 0.00 0.00 0.00 70 1013.9
20260508025306 22 231 6.4 17.7 0.00 0.00 0.00 70 1013.9
20260508025223 22 231 6.4 17.7 0.00 0.00 0.00 70 1013.9
20260508025124 22 232 6.4 17.7 0.00 0.00 0.00 70 1013.8
20260508025024 22 207 6.4 17.7 0.00 0.00 0.00 69 1013.9
20260508024923 22 228 6.4 16.1 0.00 0.00 0.00 69 1013.8
20260508024824 22 240 4.8 16.1 0.00 0.00 0.00 69 1013.8
20260508024805 22 245 4.8 11.3 0.00 0.00 0.00 69 1013.8
20260508024723 22 250 4.8 11.3 0.00 0.00 0.00 69 1013.8
20260508024623 22 207 6.4 11.3 0.00 0.00 0.00 69 1013.9
20260508024525 22 249 6.4 11.3 0.00 0.00 0.00 69 1013.8
20260508024423 22 236 6.4 14.5 0.00 0.00 0.00 69 1013.9
20260508024323 22 231 6.4 14.5 0.00 0.00 0.00 69 1013.8
20260508024306 22 241 6.4 14.5 0.00 0.00 0.00 69 1013.8
20260508024223 22 146 6.4 14.5 0.00 0.00 0.00 69 1013.8
20260508024123 22 219 6.4 14.5 0.00 0.00 0.00 68 1013.8
20260508024024 23 245 6.4 14.5 0.00 0.00 0.00 68 1013.8
20260508023923 23 264 8.0 14.5 0.00 0.00 0.00 68 1013.8
20260508023824 23 245 6.4 14.5 0.00 0.00 0.00 68 1013.8
20260508023805 23 228 6.4 14.5 0.00 0.00 0.00 67 1013.8
20260508023723 23 207 8.0 14.5 0.00 0.00 0.00 67 1013.8
20260508023623 23 226 8.0 14.5 0.00 0.00 0.00 67 1013.8
20260508023525 23 262 6.4 14.5 0.00 0.00 0.00 66 1013.8
20260508023519 23 248 8.0 14.5 0.00 0.00 0.00 66 1013.8
20260508023419 23 209 8.0 14.5 0.00 0.00 0.00 66 1013.8
20260508023411 23 240 6.4 14.5 0.00 0.00 0.00 66 1013.8
20260508023219 23 235 6.4 14.5 0.00 0.00 0.00 66 1013.7
20260508023119 23 253 8.0 14.5 0.00 0.00 0.00 66 1013.7
20260508023018 23 221 8.0 17.7 0.00 0.00 0.00 66 1013.7
20260508022919 23 228 8.0 19.3 0.00 0.00 0.00 65 1013.7
20260508022819 23 236 8.0 19.3 0.00 0.00 0.00 65 1013.7
20260508022801 23 207 8.0 19.3 0.00 0.00 0.00 65 1013.7
20260508022718 23 235 8.0 19.3 0.00 0.00 0.00 65 1013.7
20260508022620 23 205 8.0 19.3 0.00 0.00 0.00 65 1013.7
20260508022519 23 212 8.0 19.3 0.00 0.00 0.00 64 1013.7
20260508022419 23 240 9.7 22.5 0.00 0.00 0.00 64 1013.7
20260508022319 23 270 9.7 22.5 0.00 0.00 0.00 64 1013.7
20260508022301 23 277 9.7 22.5 0.00 0.00 0.00 64 1013.7
20260508022219 23 238 11.3 22.5 0.00 0.00 0.00 63 1013.7
20260508022120 23 201 11.3 22.5 0.00 0.00 0.00 63 1013.7
20260508022019 24 229 9.7 22.5 0.00 0.00 0.00 62 1013.7
20260508021919 24 255 9.7 22.5 0.00 0.00 0.00 61 1013.6
20260508021819 24 256 9.7 22.5 0.00 0.00 0.00 61 1013.6
20260508021800 24 252 9.7 22.5 0.00 0.00 0.00 61 1013.6
20260508021719 24 277 9.7 22.5 0.00 0.00 0.00 61 1013.6
20260508021615 24 200 8.0 22.5 0.00 0.00 0.00 61 1013.7
20260508021515 24 233 8.0 22.5 0.00 0.00 0.00 61 1013.6
20260508021415 24 248 8.0 20.9 0.00 0.00 0.00 61 1013.6
20260508021315 24 243 8.0 19.3 0.00 0.00 0.00 61 1013.6
20260508021301 24 214 8.0 19.3 0.00 0.00 0.00 61 1013.6
20260508021215 25 251 8.0 19.3 0.00 0.00 0.00 62 1013.6
20260508021115 25 225 8.0 16.1 0.00 0.00 0.00 63 1013.5
20260508021015 25 210 8.0 16.1 0.00 0.00 0.00 63 1013.6
20260508020914 25 221 8.0 16.1 0.00 0.00 0.00 63 1013.5
20260508020815 25 236 8.0 16.1 0.00 0.00 0.00 64 1013.5
20260508020801 25 238 8.0 16.1 0.00 0.00 0.00 64 1013.5
20260508020715 25 242 8.0 16.1 0.00 0.00 0.00 63 1013.5
20260508020615 25 228 8.0 16.1 0.00 0.00 0.00 63 1013.6
20260508020515 25 243 8.0 16.1 0.00 0.00 0.00 63 1013.6
20260508020414 25 256 8.0 16.1 0.00 0.00 0.00 63 1013.6
20260508020315 25 211 8.0 16.1 0.00 0.00 0.00 63 1013.6
20260508020301 25 236 8.0 16.1 0.00 0.00 0.00 63 1013.6
20260508020215 25 228 6.4 16.1 0.00 0.00 0.00 63 1013.6
20260508020115 25 228 6.4 16.1 0.00 0.00 0.00 63 1013.5
20260508020027 25 243 4.8 14.5 0.00 0.00 0.00 62 1013.5
20260508020015 25 250 6.4 16.1 0.00 0.00 0.00 62 1013.6
20260508015920 25 253 4.8 14.5 0.00 0.00 0.00 63 1013.5
20260508015911 25 187 4.8 14.5 0.00 0.00 0.00 62 1013.5
20260508015711 25 219 4.8 12.9 0.00 0.00 0.00 63 1013.6
20260508015611 25 250 4.8 12.9 0.00 0.00 0.00 63 1013.5
20260508015511 25 214 4.8 16.1 0.00 0.00 0.00 63 1013.5
20260508015410 25 250 4.8 17.7 0.00 0.00 0.00 63 1013.5
20260508015312 25 229 4.8 17.7 0.00 0.00 0.00 63 1013.6
20260508015305 25 241 4.8 17.7 0.00 0.00 0.00 63 1013.6
20260508015211 26 228 4.8 17.7 0.00 0.00 0.00 62 1013.6
20260508015111 26 277 6.4 17.7 0.00 0.00 0.00 62 1013.5
20260508015011 26 218 4.8 17.7 0.00 0.00 0.00 62 1013.5
20260508014911 26 233 6.4 17.7 0.00 0.00 0.00 62 1013.6
20260508014811 26 233 6.4 17.7 0.00 0.00 0.00 62 1013.6
20260508014758 26 242 6.4 17.7 0.00 0.00 0.00 62 1013.6
20260508014711 26 229 6.4 17.7 0.00 0.00 0.00 62 1013.6
20260508014611 26 191 6.4 17.7 0.00 0.00 0.00 61 1013.5
20260508014511 26 233 6.4 17.7 0.00 0.00 0.00 61 1013.6
20260508014411 26 217 4.8 11.3 0.00 0.00 0.00 61 1013.6
20260508014310 26 274 4.8 11.3 0.00 0.00 0.00 61 1013.6
20260508014257 26 224 4.8 11.3 0.00 0.00 0.00 61 1013.6
20260508014211 26 241 4.8 11.3 0.00 0.00 0.00 60 1013.6
20260508014111 26 225 4.8 11.3 0.00 0.00 0.00 60 1013.6
20260508014011 26 269 3.2 11.3 0.00 0.00 0.00 60 1013.6
20260508013911 26 226 3.2 11.3 0.00 0.00 0.00 59 1013.6
20260508013809 26 233 3.2 11.3 0.00 0.00 0.00 58 1013.6
20260508013758 26 239 3.2 11.3 0.00 0.00 0.00 58 1013.6
20260508013707 26 226 3.2 11.3 0.00 0.00 0.00 59 1013.6
20260508013607 26 225 3.2 11.3 0.00 0.00 0.00 58 1013.6
20260508013507 26 240 3.2 11.3 0.00 0.00 0.00 58 1013.6
20260508013406 26 235 3.2 11.3 0.00 0.00 0.00 58 1013.6
20260508013310 26 236 3.2 11.3 0.00 0.00 0.00 58 1013.6
20260508013258 26 260 3.2 11.3 0.00 0.00 0.00 58 1013.6
20260508013207 26 246 3.2 11.3 0.00 0.00 0.00 58 1013.6
20260508013107 26 235 3.2 9.7 0.00 0.00 0.00 59 1013.6
20260508013007 26 235 3.2 9.7 0.00 0.00 0.00 59 1013.6
20260508012907 26 234 3.2 9.7 0.00 0.00 0.00 58 1013.6
20260508012808 26 226 3.2 9.7 0.00 0.00 0.00 58 1013.6
20260508012757 26 226 3.2 9.7 0.00 0.00 0.00 58 1013.6
20260508012707 26 222 3.2 9.7 0.00 0.00 0.00 58 1013.6
20260508012607 27 208 3.2 9.7 0.00 0.00 0.00 58 1013.6
20260508012507 27 238 3.2 9.7 0.00 0.00 0.00 58 1013.6
20260508012406 27 207 3.2 8.0 0.00 0.00 0.00 58 1013.6
20260508012308 27 210 3.2 8.0 0.00 0.00 0.00 57 1013.6
20260508012256 27 242 3.2 8.0 0.00 0.00 0.00 57 1013.6
20260508012207 27 243 1.6 8.0 0.00 0.00 0.00 57 1013.6
20260508012107 27 243 1.6 8.0 0.00 0.00 0.00 57 1013.6
20260508012007 27 250 1.6 8.0 0.00 0.00 0.00 58 1013.6
20260508011903 27 248 1.6 8.0 0.00 0.00 0.00 58 1013.6
20260508011811 27 249 1.6 8.0 0.00 0.00 0.00 58 1013.6
20260508011758 27 225 1.6 8.0 0.00 0.00 0.00 58 1013.6
20260508011708 27 253 1.6 8.0 0.00 0.00 0.00 58 1013.6
20260508011603 27 226 1.6 8.0 0.00 0.00 0.00 58 1013.6
20260508011504 27 243 0.0 8.0 0.00 0.00 0.00 58 1013.6
20260508011403 27 322 0.0 4.8 0.00 0.00 0.00 59 1013.6
20260508011307 27 322 0.0 4.8 0.00 0.00 0.00 58 1013.6
20260508011257 27 323 0.0 4.8 0.00 0.00 0.00 58 1013.6
20260508011203 27 323 0.0 4.8 0.00 0.00 0.00 57 1013.6
20260508011103 27 323 1.6 8.0 0.00 0.00 0.00 58 1013.6
20260508011002 27 339 1.6 9.7 0.00 0.00 0.00 58 1013.6
20260508010903 27 339 1.6 9.7 0.00 0.00 0.00 58 1013.7
20260508010811 27 231 1.6 9.7 0.00 0.00 0.00 58 1013.7
20260508010800 27 232 1.6 9.7 0.00 0.00 0.00 58 1013.7
20260508010704 27 232 1.6 9.7 0.00 0.00 0.00 58 1013.7
20260508010603 27 232 1.6 9.7 0.00 0.00 0.00 58 1013.6
20260508010503 27 232 1.6 9.7 0.00 0.00 0.00 57 1013.6
20260508010403 27 232 1.6 9.7 0.00 0.00 0.00 58 1013.7
20260508010252 27 232 1.6 9.7 0.00 0.00 0.00 57 1013.6
20260508010204 27 229 1.6 9.7 0.00 0.00 0.00 57 1013.6
20260508010010 27 224 1.6 9.7 0.00 0.00 0.00 58 1013.7
20260508005959 27 222 0.0 8.0 0.00 0.00 0.00 58 1013.7
20260508005912 27 224 1.6 9.7 0.00 0.00 0.00 58 1013.7
20260508005903 27 224 1.6 9.7 0.00 0.00 0.00 58 1013.7
20260508005659 27 224 1.6 9.7 0.00 0.00 0.00 58 1013.6
20260508005559 27 223 1.6 9.7 0.00 0.00 0.00 58 1013.6
20260508005459 27 224 1.6 9.7 0.00 0.00 0.00 58 1013.7
20260508005359 27 224 1.6 9.7 0.00 0.00 0.00 58 1013.7
20260508005252 27 224 1.6 9.7 0.00 0.00 0.00 58 1013.7
20260508005201 27 224 1.6 9.7 0.00 0.00 0.00 57 1013.7
20260508005059 27 238 1.6 9.7 0.00 0.00 0.00 57 1013.6
20260508004959 27 248 0.0 9.7 0.00 0.00 0.00 57 1013.7
20260508004859 27 235 0.0 4.8 0.00 0.00 0.00 57 1013.7
20260508004753 27 240 0.0 4.8 0.00 0.00 0.00 57 1013.7
20260508004700 27 242 1.6 11.3 0.00 0.00 0.00 56 1013.7
20260508004559 27 242 1.6 11.3 0.00 0.00 0.00 56 1013.7
20260508004459 27 242 1.6 11.3 0.00 0.00 0.00 56 1013.8
20260508004359 27 242 1.6 11.3 0.00 0.00 0.00 56 1013.7
20260508004304 27 242 1.6 11.3 0.00 0.00 0.00 56 1013.7
20260508004253 27 241 1.6 11.3 0.00 0.00 0.00 56 1013.7
20260508004159 27 242 1.6 11.3 0.00 0.00 0.00 56 1013.7
20260508004055 27 242 1.6 11.3 0.00 0.00 0.00 56 1013.7
20260508003955 27 242 1.6 11.3 0.00 0.00 0.00 55 1013.7
20260508003855 27 235 1.6 11.3 0.00 0.00 0.00 55 1013.7
20260508003757 27 218 1.6 11.3 0.00 0.00 0.00 54 1013.8
20260508003655 27 233 1.6 11.3 0.00 0.00 0.00 55 1013.8
20260508003555 28 233 1.6 11.3 0.00 0.00 0.00 54 1013.8
20260508003455 28 233 1.6 11.3 0.00 0.00 0.00 54 1013.8
20260508003355 28 233 1.6 11.3 0.00 0.00 0.00 54 1013.8
20260508003256 28 229 1.6 11.3 0.00 0.00 0.00 53 1013.8
20260508003155 28 146 1.6 11.3 0.00 0.00 0.00 53 1013.8
20260508003055 28 222 1.6 11.3 0.00 0.00 0.00 53 1013.8
20260508003019 28 246 1.6 8.0 0.00 0.00 0.00 53 1013.8
20260508002954 28 357 0.0 4.8 0.00 0.00 0.00 54 1013.8
20260508002913 28 246 1.6 8.0 0.00 0.00 0.00 54 1013.8
20260508002903 28 246 1.6 8.0 0.00 0.00 0.00 53 1013.8
20260508002655 28 263 1.6 8.0 0.00 0.00 0.00 53 1013.8
20260508002556 28 263 1.6 8.0 0.00 0.00 0.00 53 1013.8
20260508002455 28 263 1.6 8.0 0.00 0.00 0.00 54 1013.8
20260508002355 28 263 1.6 8.0 0.00 0.00 0.00 54 1013.8
20260508002257 28 263 1.6 8.0 0.00 0.00 0.00 53 1013.8
20260508002151 28 263 1.6 8.0 0.00 0.00 0.00 52 1013.8
20260508001951 28 252 1.6 8.0 0.00 0.00 0.00 52 1013.8
20260508001851 28 217 1.6 8.0 0.00 0.00 0.00 51 1013.8
20260508001807 28 243 1.6 8.0 0.00 0.00 0.00 52 1013.9
20260508001655 28 231 1.6 8.0 0.00 0.00 0.00 51 1013.8
20260508001551 28 248 1.6 8.0 0.00 0.00 0.00 50 1013.8
20260508001451 28 245 1.6 8.0 0.00 0.00 0.00 51 1013.8
20260508001351 28 246 1.6 8.0 0.00 0.00 0.00 51 1013.8
20260508001254 28 198 1.6 8.0 0.00 0.00 0.00 52 1013.8
20260508001151 28 218 1.6 8.0 0.00 0.00 0.00 52 1013.9
20260508001051 28 217 1.6 8.0 0.00 0.00 0.00 51 1013.9
20260508000951 28 218 1.6 12.9 0.00 0.00 0.00 51 1013.8
20260508000852 28 222 1.6 12.9 0.00 0.00 0.00 51 1013.8
20260508000755 28 233 1.6 12.9 0.00 0.00 0.00 52 1013.8
20260508000651 28 150 1.6 12.9 0.00 0.00 0.00 52 1013.8
20260508000551 28 221 3.2 12.9 0.00 0.00 0.00 52 1013.8
20260508000451 28 165 3.2 12.9 0.00 0.00 0.00 53 1013.8
20260508000351 28 250 3.2 12.9 0.00 0.00 0.00 54 1013.9
20260508000250 28 288 3.2 12.9 0.00 0.00 0.00 54 1013.9
20260508000147 28 282 3.2 12.9 0.00 0.00 0.00 53 1013.8
20260508000047 28 260 3.2 12.9 0.00 0.00 0.00 53 1013.7
20260507235947 28 307 3.2 12.9 0.00 0.00 0.00 53 1013.8
20260507235847 28 307 4.8 12.9 0.00 0.00 0.00 52 1013.8
20260507235747 28 325 4.8 12.9 0.00 0.00 0.00 52 1013.8
20260507235651 28 245 4.8 12.9 0.00 0.00 0.00 52 1013.8
20260507235547 28 224 4.8 12.9 0.00 0.00 0.00 53 1013.8
20260507235446 28 231 4.8 12.9 0.00 0.00 0.00 52 1013.8
20260507235347 28 110 6.4 12.9 0.00 0.00 0.00 52 1013.8
20260507235255 28 158 4.8 12.9 0.00 0.00 0.00 52 1013.8
20260507235247 28 159 4.8 12.9 0.00 0.00 0.00 52 1013.8
20260507235147 28 266 6.4 12.9 0.00 0.00 0.00 52 1013.8
20260507235047 28 143 6.4 14.5 0.00 0.00 0.00 52 1013.8
20260507235017 28 226 6.4 14.5 0.00 0.00 0.00 51 1013.8
20260507234947 28 253 6.4 14.5 0.00 0.00 0.00 52 1013.8
20260507234905 28 253 6.4 14.5 0.00 0.00 0.00 51 1013.8
20260507234747 28 230 6.4 14.5 0.00 0.00 0.00 51 1013.8
20260507234652 28 210 6.4 14.5 0.00 0.00 0.00 51 1013.8
20260507234546 28 243 4.8 14.5 0.00 0.00 0.00 52 1013.8
20260507234510 29 176 4.8 14.5 0.00 0.00 0.00 51 1013.8
20260507234447 28 225 4.8 14.5 0.00 0.00 0.00 51 1013.8
20260507234359 28 249 4.8 14.5 0.00 0.00 0.00 52 1013.8
20260507234243 29 138 4.8 14.5 0.00 0.00 0.00 51 1013.9
20260507234143 29 236 4.8 14.5 0.00 0.00 0.00 50 1013.9
20260507234043 29 225 3.2 12.9 0.00 0.00 0.00 51 1013.9
20260507233943 29 236 3.2 12.9 0.00 0.00 0.00 51 1013.9
20260507233843 30 215 3.2 12.9 0.00 0.00 0.00 50 1013.8
20260507233749 30 193 1.6 11.3 0.00 0.00 0.00 50 1013.8
20260507233743 30 193 1.6 11.3 0.00 0.00 0.00 50 1013.9
20260507233643 30 217 1.6 11.3 0.00 0.00 0.00 50 1013.8
20260507233543 30 229 1.6 11.3 0.00 0.00 0.00 51 1013.9
20260507233443 30 228 3.2 11.3 0.00 0.00 0.00 50 1013.9
20260507233342 30 167 3.2 11.3 0.00 0.00 0.00 50 1013.9
20260507233252 30 146 3.2 11.3 0.00 0.00 0.00 52 1013.9
20260507233243 30 150 3.2 11.3 0.00 0.00 0.00 52 1013.8
20260507233143 30 158 3.2 11.3 0.00 0.00 0.00 52 1013.9
20260507233043 29 150 3.2 11.3 0.00 0.00 0.00 51 1013.9
20260507232942 29 149 3.2 11.3 0.00 0.00 0.00 51 1013.9
20260507232843 29 146 3.2 12.9 0.00 0.00 0.00 52 1013.9
20260507232743 29 224 3.2 12.9 0.00 0.00 0.00 51 1013.9
20260507232644 29 219 3.2 12.9 0.00 0.00 0.00 52 1013.9
20260507232543 29 167 1.6 12.9 0.00 0.00 0.00 51 1013.9
20260507232439 29 163 1.6 12.9 0.00 0.00 0.00 51 1013.9
20260507232339 29 239 1.6 12.9 0.00 0.00 0.00 52 1013.9
20260507232239 29 304 1.6 12.9 0.00 0.00 0.00 53 1013.9
20260507232139 29 240 3.2 12.9 0.00 0.00 0.00 52 1013.9
20260507232038 29 240 3.2 12.9 0.00 0.00 0.00 52 1014.0
20260507231939 29 240 1.6 12.9 0.00 0.00 0.00 51 1014.0
20260507231839 29 314 1.6 8.0 0.00 0.00 0.00 52 1014.0
20260507231746 29 219 1.6 8.0 0.00 0.00 0.00 52 1014.0
20260507231738 29 219 3.2 8.0 0.00 0.00 0.00 52 1014.0
20260507231639 29 219 3.2 8.0 0.00 0.00 0.00 52 1014.0
20260507231538 29 219 1.6 8.0 0.00 0.00 0.00 51 1014.0
20260507231439 29 210 1.6 8.0 0.00 0.00 0.00 50 1014.1
20260507231339 29 235 1.6 8.0 0.00 0.00 0.00 51 1014.1
20260507231241 29 145 1.6 8.0 0.00 0.00 0.00 53 1014.1
20260507231232 28 235 1.6 6.4 0.00 0.00 0.00 53 1014.2
20260507231139 29 145 1.6 8.0 0.00 0.00 0.00 52 1014.1
20260507231117 29 229 1.6 8.0 0.00 0.00 0.00 53 1014.1
20260507230939 28 350 1.6 6.4 0.00 0.00 0.00 53 1014.1
20260507230905 28 6 1.6 6.4 0.00 0.00 0.00 53 1014.2
20260507230740 28 235 1.6 6.4 0.00 0.00 0.00 53 1014.2
20260507230641 28 256 1.6 8.0 0.00 0.00 0.00 53 1014.2
20260507230537 28 194 1.6 8.0 0.00 0.00 0.00 53 1014.2
20260507230435 28 316 3.2 8.0 0.00 0.00 0.00 53 1014.2
20260507230334 28 316 3.2 8.0 0.00 0.00 0.00 53 1014.2
20260507230251 28 316 3.2 8.0 0.00 0.00 0.00 52 1014.2
20260507230242 28 316 3.2 8.0 0.00 0.00 0.00 52 1014.3
20260507230134 28 316 3.2 9.7 0.00 0.00 0.00 52 1014.3
20260507230035 28 239 4.8 9.7 0.00 0.00 0.00 53 1014.3
20260507225935 28 238 4.8 9.7 0.00 0.00 0.00 53 1014.3
20260507225839 28 228 4.8 9.7 0.00 0.00 0.00 53 1014.4
20260507225739 28 228 4.8 9.7 0.00 0.00 0.00 52 1014.4
20260507225635 28 210 4.8 9.7 0.00 0.00 0.00 52 1014.4
20260507225535 28 221 4.8 9.7 0.00 0.00 0.00 53 1014.4
20260507225435 28 208 4.8 9.7 0.00 0.00 0.00 53 1014.4
20260507225336 28 243 4.8 9.7 0.00 0.00 0.00 54 1014.4
20260507225245 28 141 4.8 9.7 0.00 0.00 0.00 53 1014.4
20260507225235 28 156 4.8 9.7 0.00 0.00 0.00 53 1014.4
20260507225135 28 215 4.8 12.9 0.00 0.00 0.00 52 1014.4
20260507225035 28 235 4.8 12.9 0.00 0.00 0.00 52 1014.5
20260507224934 29 214 3.2 12.9 0.00 0.00 0.00 52 1014.5
20260507224835 29 236 3.2 12.9 0.00 0.00 0.00 52 1014.5
20260507224735 29 225 3.2 12.9 0.00 0.00 0.00 52 1014.5
20260507224630 29 231 3.2 12.9 0.00 0.00 0.00 53 1014.5
20260507224531 29 255 3.2 12.9 0.00 0.00 0.00 52 1014.5
20260507224431 29 256 3.2 12.9 0.00 0.00 0.00 53 1014.6
20260507224331 29 250 3.2 12.9 0.00 0.00 0.00 52 1014.5
20260507224242 29 242 3.2 12.9 0.00 0.00 0.00 52 1014.6
20260507224235 29 217 3.2 12.9 0.00 0.00 0.00 52 1014.6
20260507224131 28 207 3.2 9.7 0.00 0.00 0.00 55 1014.6
20260507224031 28 224 3.2 9.7 0.00 0.00 0.00 55 1014.6
20260507223931 28 224 3.2 9.7 0.00 0.00 0.00 54 1014.6
20260507223831 28 224 3.2 9.7 0.00 0.00 0.00 54 1014.6
20260507223731 28 224 3.2 9.7 0.00 0.00 0.00 54 1014.6
20260507223631 28 224 3.2 9.7 0.00 0.00 0.00 53 1014.6
20260507223531 28 275 3.2 9.7 0.00 0.00 0.00 52 1014.6
20260507223431 29 236 3.2 9.7 0.00 0.00 0.00 51 1014.7
20260507223331 29 226 1.6 9.7 0.00 0.00 0.00 51 1014.7
20260507223231 29 218 1.6 8.0 0.00 0.00 0.00 51 1014.7
20260507223131 29 281 1.6 8.0 0.00 0.00 0.00 51 1014.8
20260507223031 30 224 0.0 8.0 0.00 0.00 0.00 50 1014.8
20260507222930 30 237 0.0 4.8 0.00 0.00 0.00 51 1014.7
20260507222831 30 235 0.0 4.8 0.00 0.00 0.00 52 1014.8
20260507222741 30 235 0.0 3.2 0.00 0.00 0.00 52 1014.8
20260507222727 30 245 0.0 3.2 0.00 0.00 0.00 52 1014.8
20260507222627 30 245 0.0 3.2 0.00 0.00 0.00 51 1014.8
20260507222527 30 245 1.6 6.4 0.00 0.00 0.00 51 1014.8
20260507222427 30 246 1.6 6.4 0.00 0.00 0.00 51 1014.9
20260507222327 30 243 1.6 9.7 0.00 0.00 0.00 51 1014.9
20260507222227 30 271 1.6 9.7 0.00 0.00 0.00 52 1014.9
20260507222126 30 262 1.6 9.7 0.00 0.00 0.00 53 1015.0
20260507222028 29 139 1.6 9.7 0.00 0.00 0.00 54 1015.0
20260507222000 29 226 1.6 9.7 0.00 0.00 0.00 53 1015.0
20260507221926 29 226 1.6 9.7 0.00 0.00 0.00 53 1015.0
20260507221851 29 226 1.6 9.7 0.00 0.00 0.00 53 1015.0
20260507221728 29 226 1.6 9.7 0.00 0.00 0.00 53 1015.0
20260507221627 29 277 1.6 9.7 0.00 0.00 0.00 53 1015.0
20260507221527 29 276 1.6 9.7 0.00 0.00 0.00 52 1015.0
20260507221427 29 218 1.6 9.7 0.00 0.00 0.00 51 1015.1
20260507221327 29 125 1.6 8.0 0.00 0.00 0.00 51 1015.1
20260507221240 29 205 1.6 8.0 0.00 0.00 0.00 52 1015.1
20260507221233 28 204 1.6 6.4 0.00 0.00 0.00 53 1015.2
20260507221227 29 177 1.6 6.4 0.00 0.00 0.00 52 1015.1
20260507221126 28 194 1.6 6.4 0.00 0.00 0.00 54 1015.2
20260507221114 28 93 1.6 6.4 0.00 0.00 0.00 54 1015.2
20260507220927 28 63 1.6 6.4 0.00 0.00 0.00 54 1015.2
20260507220851 28 63 1.6 6.4 0.00 0.00 0.00 54 1015.2
20260507220723 28 174 1.6 6.4 0.00 0.00 0.00 53 1015.2
20260507220623 28 304 1.6 6.4 0.00 0.00 0.00 54 1015.2
20260507220523 28 325 1.6 6.4 0.00 0.00 0.00 53 1015.3
20260507220423 28 312 1.6 6.4 0.00 0.00 0.00 54 1015.3
20260507220323 28 231 1.6 6.4 0.00 0.00 0.00 54 1015.3
20260507220225 28 231 1.6 6.4 0.00 0.00 0.00 54 1015.3
20260507220123 28 218 1.6 8.0 0.00 0.00 0.00 53 1015.3
20260507220023 28 221 1.6 8.0 0.00 0.00 0.00 54 1015.4
20260507215924 28 219 1.6 8.0 0.00 0.00 0.00 54 1015.4
20260507215823 28 219 1.6 8.0 0.00 0.00 0.00 54 1015.4
20260507215723 28 219 1.6 8.0 0.00 0.00 0.00 55 1015.4
20260507215623 28 219 1.6 8.0 0.00 0.00 0.00 54 1015.4
20260507215523 28 219 1.6 8.0 0.00 0.00 0.00 53 1015.5
20260507215424 28 219 1.6 8.0 0.00 0.00 0.00 53 1015.4
20260507215322 28 160 1.6 8.0 0.00 0.00 0.00 52 1015.4
20260507215237 28 332 1.6 8.0 0.00 0.00 0.00 52 1015.5
20260507215223 28 321 1.6 8.0 0.00 0.00 0.00 52 1015.5
20260507215122 28 307 1.6 8.0 0.00 0.00 0.00 51 1015.5
20260507215024 28 319 1.6 8.0 0.00 0.00 0.00 52 1015.5
20260507214919 28 117 1.6 8.0 0.00 0.00 0.00 52 1015.4
20260507214820 28 141 0.0 6.4 0.00 0.00 0.00 54 1015.5
20260507214736 28 239 1.6 4.8 0.00 0.00 0.00 54 1015.5
20260507214719 28 238 1.6 4.8 0.00 0.00 0.00 54 1015.5
20260507214619 28 239 1.6 4.8 0.00 0.00 0.00 53 1015.5
20260507214519 28 238 1.6 4.8 0.00 0.00 0.00 53 1015.6
20260507214419 28 218 1.6 6.4 0.00 0.00 0.00 53 1015.6
20260507214320 28 226 1.6 6.4 0.00 0.00 0.00 54 1015.6
20260507214237 28 214 1.6 6.4 0.00 0.00 0.00 55 1015.6
20260507214220 28 153 1.6 6.4 0.00 0.00 0.00 55 1015.6
20260507214119 27 160 1.6 9.7 0.00 0.00 0.00 55 1015.6
20260507214019 27 49 1.6 9.7 0.00 0.00 0.00 55 1015.6
20260507213920 27 49 1.6 9.7 0.00 0.00 0.00 56 1015.6
20260507213819 27 53 3.2 9.7 0.00 0.00 0.00 55 1015.6
20260507213736 27 58 3.2 9.7 0.00 0.00 0.00 55 1015.6
20260507213718 27 53 3.2 9.7 0.00 0.00 0.00 55 1015.6
20260507213619 27 345 3.2 9.7 0.00 0.00 0.00 54 1015.7
20260507213519 27 317 1.6 9.7 0.00 0.00 0.00 55 1015.7
20260507213419 27 332 1.6 9.7 0.00 0.00 0.00 55 1015.7
20260507213319 27 43 1.6 9.7 0.00 0.00 0.00 54 1015.7
20260507213237 27 346 1.6 9.7 0.00 0.00 0.00 54 1015.8
20260507213219 27 318 1.6 9.7 0.00 0.00 0.00 55 1015.8
20260507213120 27 335 1.6 6.4 0.00 0.00 0.00 55 1015.8
20260507213014 27 318 1.6 6.4 0.00 0.00 0.00 53 1015.8
20260507212954 27 314 1.6 6.4 0.00 0.00 0.00 54 1015.8
20260507212916 27 318 1.6 6.4 0.00 0.00 0.00 53 1015.8
20260507212849 27 318 1.6 6.4 0.00 0.00 0.00 54 1015.8
20260507212715 27 314 1.6 6.4 0.00 0.00 0.00 54 1015.8
20260507212615 27 330 1.6 6.4 0.00 0.00 0.00 53 1015.8
20260507212515 27 330 1.6 6.4 0.00 0.00 0.00 55 1015.9
20260507212414 27 325 1.6 6.4 0.00 0.00 0.00 55 1015.8
20260507212315 27 341 1.6 6.4 0.00 0.00 0.00 55 1015.9
20260507212250 27 342 1.6 6.4 0.00 0.00 0.00 55 1015.9
20260507212215 27 342 1.6 6.4 0.00 0.00 0.00 55 1015.9
20260507212115 27 342 1.6 6.4 0.00 0.00 0.00 53 1015.9
20260507212015 27 104 1.6 6.4 0.00 0.00 0.00 53 1015.9
20260507211915 28 225 1.6 6.4 0.00 0.00 0.00 53 1016.0
20260507211815 28 225 1.6 6.4 0.00 0.00 0.00 53 1016.0
20260507211714 28 217 1.6 6.4 0.00 0.00 0.00 55 1016.0
20260507211615 28 192 1.6 6.4 0.00 0.00 0.00 53 1016.0
20260507211515 28 49 1.6 6.4 0.00 0.00 0.00 53 1016.0
20260507211414 28 316 1.6 6.4 0.00 0.00 0.00 54 1016.1
20260507211315 28 288 1.6 8.0 0.00 0.00 0.00 54 1016.1
20260507211215 28 288 1.6 8.0 0.00 0.00 0.00 54 1016.1
20260507211111 28 253 1.6 8.0 0.00 0.00 0.00 55 1016.1
20260507211011 28 253 1.6 8.0 0.00 0.00 0.00 53 1016.1
20260507210917 28 225 1.6 8.0 0.00 0.00 0.00 54 1016.1
20260507210811 28 115 1.6 8.0 0.00 0.00 0.00 54 1016.1
20260507210746 28 96 1.6 8.0 0.00 0.00 0.00 54 1016.1
20260507210711 28 96 1.6 8.0 0.00 0.00 0.00 54 1016.1
20260507210611 28 236 1.6 8.0 0.00 0.00 0.00 53 1016.1
20260507210515 27 150 1.6 8.0 0.00 0.00 0.00 56 1016.2
20260507210411 27 145 1.6 8.0 0.00 0.00 0.00 55 1016.2
20260507210311 27 223 1.6 6.4 0.00 0.00 0.00 54 1016.2
20260507210233 27 124 1.6 6.4 0.00 0.00 0.00 54 1016.2
20260507210211 27 133 1.6 6.4 0.00 0.00 0.00 55 1016.2
20260507210111 27 134 1.6 6.4 0.00 0.00 0.00 54 1016.2
20260507210011 27 228 1.6 6.4 0.00 0.00 0.00 54 1016.2
20260507205911 27 218 0.0 6.4 0.00 0.00 0.00 56 1016.3
20260507205810 27 305 1.6 6.4 0.00 0.00 0.00 56 1016.2
20260507205733 27 305 1.6 6.4 0.00 0.00 0.00 56 1016.2
20260507205712 27 305 1.6 6.4 0.00 0.00 0.00 55 1016.2
20260507205611 27 305 1.6 6.4 0.00 0.00 0.00 56 1016.3
20260507205511 27 240 1.6 4.8 0.00 0.00 0.00 56 1016.3
20260507205411 27 240 1.6 4.8 0.00 0.00 0.00 57 1016.3
20260507205311 27 240 1.6 4.8 0.00 0.00 0.00 57 1016.4
20260507205232 27 240 1.6 4.8 0.00 0.00 0.00 56 1016.4
20260507205207 27 240 1.6 4.8 0.00 0.00 0.00 57 1016.4
20260507205107 27 99 1.6 3.2 0.00 0.00 0.00 56 1016.4
20260507205007 26 271 1.6 4.8 0.00 0.00 0.00 56 1016.3
20260507204907 26 150 1.6 4.8 0.00 0.00 0.00 57 1016.4
20260507204807 26 134 1.6 9.7 0.00 0.00 0.00 57 1016.4
20260507204733 26 127 1.6 9.7 0.00 0.00 0.00 57 1016.4
20260507204708 26 302 1.6 9.7 0.00 0.00 0.00 57 1016.4
20260507204607 26 304 1.6 9.7 0.00 0.00 0.00 58 1016.4
20260507204508 26 304 3.2 9.7 0.00 0.00 0.00 59 1016.4
20260507204407 26 99 3.2 9.7 0.00 0.00 0.00 58 1016.4
20260507204307 26 41 1.6 9.7 0.00 0.00 0.00 57 1016.4
20260507204232 26 43 1.6 9.7 0.00 0.00 0.00 57 1016.4
20260507204207 26 322 1.6 9.7 0.00 0.00 0.00 57 1016.4
20260507204108 26 323 1.6 9.7 0.00 0.00 0.00 57 1016.4
20260507204007 26 342 1.6 9.7 0.00 0.00 0.00 57 1016.4
20260507203908 26 358 1.6 9.7 0.00 0.00 0.00 56 1016.4
20260507203807 26 338 1.6 9.7 0.00 0.00 0.00 56 1016.4
20260507203734 27 355 1.6 9.7 0.00 0.00 0.00 57 1016.4
20260507203708 27 5 1.6 9.7 0.00 0.00 0.00 57 1016.4
20260507203607 26 291 1.6 9.7 0.00 0.00 0.00 58 1016.5
20260507203511 26 153 3.2 9.7 0.00 0.00 0.00 58 1016.4
20260507203407 26 154 3.2 9.7 0.00 0.00 0.00 59 1016.4
20260507203303 26 158 3.2 9.7 0.00 0.00 0.00 59 1016.5
20260507203230 26 159 3.2 9.7 0.00 0.00 0.00 59 1016.5
20260507203214 26 231 3.2 9.7 0.00 0.00 0.00 58 1016.5
20260507203203 26 330 3.2 9.7 0.00 0.00 0.00 59 1016.5
20260507203111 26 330 3.2 9.7 0.00 0.00 0.00 60 1016.5
20260507203103 26 330 3.2 9.7 0.00 0.00 0.00 60 1016.5
20260507202903 26 16 3.2 9.7 0.00 0.00 0.00 58 1016.5
20260507202841 26 126 3.2 9.7 0.00 0.00 0.00 58 1016.5
20260507202703 26 221 3.2 9.7 0.00 0.00 0.00 57 1016.5
20260507202604 26 235 3.2 9.7 0.00 0.00 0.00 58 1016.6
20260507202503 26 231 3.2 9.7 0.00 0.00 0.00 58 1016.6
20260507202402 26 138 3.2 8.0 0.00 0.00 0.00 59 1016.6
20260507202306 26 153 3.2 8.0 0.00 0.00 0.00 59 1016.6
20260507202229 26 303 3.2 8.0 0.00 0.00 0.00 59 1016.7
20260507202203 26 27 3.2 8.0 0.00 0.00 0.00 58 1016.7
20260507202104 26 11 3.2 8.0 0.00 0.00 0.00 58 1016.6
20260507202004 26 332 3.2 8.0 0.00 0.00 0.00 58 1016.6
20260507201903 26 267 3.2 8.0 0.00 0.00 0.00 59 1016.7
20260507201803 26 245 1.6 8.0 0.00 0.00 0.00 57 1016.7
20260507201729 26 231 1.6 8.0 0.00 0.00 0.00 57 1016.7
20260507201703 26 208 1.6 8.0 0.00 0.00 0.00 57 1016.7
20260507201603 26 211 1.6 4.8 0.00 0.00 0.00 57 1016.7
20260507201504 26 216 1.6 4.8 0.00 0.00 0.00 56 1016.7
20260507201359 26 225 1.6 4.8 0.00 0.00 0.00 57 1016.7
20260507201259 26 158 1.6 4.8 0.00 0.00 0.00 58 1016.7
20260507201230 26 120 1.6 4.8 0.00 0.00 0.00 59 1016.7
20260507201222 26 319 3.2 11.3 0.00 0.00 0.00 60 1016.7
20260507201159 26 207 1.6 6.4 0.00 0.00 0.00 60 1016.7
20260507201111 26 229 1.6 8.0 0.00 0.00 0.00 60 1016.7
20260507201102 26 236 3.2 11.3 0.00 0.00 0.00 60 1016.7
20260507200859 26 200 3.2 11.3 0.00 0.00 0.00 60 1016.8
20260507200840 26 319 3.2 11.3 0.00 0.00 0.00 60 1016.7
20260507200659 26 321 3.2 11.3 0.00 0.00 0.00 59 1016.7
20260507200559 26 340 3.2 11.3 0.00 0.00 0.00 59 1016.7
20260507200458 26 316 3.2 11.3 0.00 0.00 0.00 59 1016.8
20260507200359 26 235 4.8 11.3 0.00 0.00 0.00 60 1016.8
20260507200259 26 238 4.8 11.3 0.00 0.00 0.00 59 1016.8
20260507200242 26 316 4.8 11.3 0.00 0.00 0.00 59 1016.8
20260507200159 26 212 4.8 11.3 0.00 0.00 0.00 59 1016.8
20260507200100 26 217 4.8 11.3 0.00 0.00 0.00 59 1016.8
20260507195958 25 127 4.8 11.3 0.00 0.00 0.00 60 1016.8
20260507195859 25 176 4.8 11.3 0.00 0.00 0.00 59 1016.8
20260507195759 25 176 4.8 11.3 0.00 0.00 0.00 59 1016.8
20260507195733 25 150 4.8 11.3 0.00 0.00 0.00 59 1016.8
20260507195718 25 228 4.8 11.3 0.00 0.00 0.00 62 1017.0
20260507195659 25 240 4.8 11.3 0.00 0.00 0.00 59 1016.8
20260507195608 25 131 6.4 11.3 0.00 0.00 0.00 60 1016.8
20260507195454 25 146 4.8 11.3 0.00 0.00 0.00 61 1016.9
20260507195355 25 156 4.8 11.3 0.00 0.00 0.00 61 1016.9
20260507195344 25 191 4.8 11.3 0.00 0.00 0.00 62 1016.9
20260507195200 25 229 4.8 11.3 0.00 0.00 0.00 61 1017.0
20260507195055 25 229 4.8 11.3 0.00 0.00 0.00 61 1017.0
20260507194954 25 224 3.2 11.3 0.00 0.00 0.00 60 1017.0
20260507194945 25 243 3.2 9.7 0.00 0.00 0.00 59 1017.1
20260507194855 25 225 3.2 11.3 0.00 0.00 0.00 59 1017.0
20260507194836 25 228 3.2 11.3 0.00 0.00 0.00 59 1017.1
20260507194655 25 229 3.2 8.0 0.00 0.00 0.00 59 1017.1
20260507194555 25 228 1.6 8.0 0.00 0.00 0.00 60 1017.1
20260507194454 25 236 1.6 8.0 0.00 0.00 0.00 61 1017.0
20260507194355 25 236 3.2 8.0 0.00 0.00 0.00 59 1017.1
20260507194255 25 214 3.2 8.0 0.00 0.00 0.00 60 1017.1
20260507194225 25 236 3.2 8.0 0.00 0.00 0.00 60 1017.1
20260507194155 25 238 3.2 9.7 0.00 0.00 0.00 60 1017.1
20260507194054 25 228 3.2 9.7 0.00 0.00 0.00 61 1017.1
20260507193955 25 216 3.2 9.7 0.00 0.00 0.00 62 1017.1
20260507193855 25 215 3.2 9.7 0.00 0.00 0.00 61 1017.1
20260507193756 25 208 3.2 9.7 0.00 0.00 0.00 61 1017.1
20260507193724 25 208 3.2 9.7 0.00 0.00 0.00 61 1017.1
20260507193655 25 203 3.2 9.7 0.00 0.00 0.00 61 1017.1
20260507193551 25 197 3.2 9.7 0.00 0.00 0.00 61 1017.2
20260507193451 25 225 3.2 9.7 0.00 0.00 0.00 61 1017.2
20260507193351 25 249 3.2 9.7 0.00 0.00 0.00 60 1017.2
20260507193251 25 226 3.2 9.7 0.00 0.00 0.00 60 1017.2
20260507193225 25 240 3.2 9.7 0.00 0.00 0.00 61 1017.2
20260507193151 25 250 3.2 11.3 0.00 0.00 0.00 62 1017.2
20260507193054 25 204 3.2 11.3 0.00 0.00 0.00 63 1017.3
20260507192950 25 204 3.2 11.3 0.00 0.00 0.00 63 1017.3
20260507192851 24 204 3.2 11.3 0.00 0.00 0.00 63 1017.2
20260507192751 24 245 3.2 11.3 0.00 0.00 0.00 63 1017.2
20260507192730 24 233 3.2 11.3 0.00 0.00 0.00 63 1017.3
20260507192651 24 238 3.2 11.3 0.00 0.00 0.00 63 1017.3
20260507192551 24 229 3.2 11.3 0.00 0.00 0.00 61 1017.3
20260507192451 24 233 1.6 11.3 0.00 0.00 0.00 62 1017.3
20260507192350 24 248 1.6 11.3 0.00 0.00 0.00 61 1017.4
20260507192251 25 257 1.6 11.3 0.00 0.00 0.00 62 1017.4
20260507192225 25 236 1.6 11.3 0.00 0.00 0.00 62 1017.3
20260507192151 25 321 1.6 4.8 0.00 0.00 0.00 62 1017.3
20260507192051 25 44 0.0 4.8 0.00 0.00 0.00 62 1017.3
20260507191956 24 286 1.6 6.4 0.00 0.00 0.00 62 1017.4
20260507191951 24 309 1.6 4.8 0.00 0.00 0.00 63 1017.4
20260507191851 24 53 1.6 4.8 0.00 0.00 0.00 62 1017.4
20260507191834 24 61 1.6 6.4 0.00 0.00 0.00 62 1017.4
20260507191650 24 44 1.6 6.4 0.00 0.00 0.00 61 1017.4
20260507191546 24 30 1.6 6.4 0.00 0.00 0.00 62 1017.5
20260507191446 24 314 1.6 6.4 0.00 0.00 0.00 63 1017.5
20260507191347 24 207 1.6 11.3 0.00 0.00 0.00 63 1017.5
20260507191247 24 197 3.2 11.3 0.00 0.00 0.00 62 1017.5
20260507191226 24 198 3.2 11.3 0.00 0.00 0.00 62 1017.6
20260507191147 24 198 3.2 11.3 0.00 0.00 0.00 63 1017.6
20260507191047 23 235 3.2 11.3 0.00 0.00 0.00 65 1017.5
20260507190955 23 238 4.8 11.3 0.00 0.00 0.00 65 1017.5
20260507190947 23 235 3.2 11.3 0.00 0.00 0.00 65 1017.5
20260507190847 23 218 3.2 11.3 0.00 0.00 0.00 66 1017.6
20260507190836 23 238 3.2 11.3 0.00 0.00 0.00 65 1017.6
20260507190650 23 241 4.8 11.3 0.00 0.00 0.00 67 1017.5
20260507190547 23 150 4.8 11.3 0.00 0.00 0.00 66 1017.5
20260507190447 22 211 4.8 11.3 0.00 0.00 0.00 66 1017.6
20260507190347 22 195 4.8 11.3 0.00 0.00 0.00 66 1017.6
20260507190247 22 208 4.8 11.3 0.00 0.00 0.00 65 1017.6
20260507190223 22 232 3.2 11.3 0.00 0.00 0.00 65 1017.6
20260507190147 22 235 3.2 11.3 0.00 0.00 0.00 66 1017.6
20260507190047 22 226 3.2 11.3 0.00 0.00 0.00 65 1017.6
20260507185947 22 218 3.2 11.3 0.00 0.00 0.00 65 1017.6
20260507185847 23 218 3.2 11.3 0.00 0.00 0.00 64 1017.7
20260507185746 23 248 3.2 11.3 0.00 0.00 0.00 65 1017.6
20260507185721 23 240 3.2 11.3 0.00 0.00 0.00 65 1017.6
20260507185643 23 224 3.2 9.7 0.00 0.00 0.00 67 1017.7
20260507185544 22 232 3.2 9.7 0.00 0.00 0.00 66 1017.7
20260507185443 22 259 3.2 9.7 0.00 0.00 0.00 65 1017.7
20260507185343 22 225 3.2 9.7 0.00 0.00 0.00 64 1017.7
20260507185243 22 233 3.2 9.7 0.00 0.00 0.00 65 1017.7
20260507185221 22 260 3.2 9.7 0.00 0.00 0.00 65 1017.7
20260507185143 22 233 3.2 9.7 0.00 0.00 0.00 66 1017.7
20260507185043 22 228 3.2 9.7 0.00 0.00 0.00 66 1017.7
20260507184947 22 278 3.2 11.3 0.00 0.00 0.00 66 1017.8
20260507184942 22 231 3.2 9.7 0.00 0.00 0.00 67 1017.8
20260507184843 22 242 3.2 11.3 0.00 0.00 0.00 67 1017.8
20260507184833 22 278 3.2 11.3 0.00 0.00 0.00 67 1017.8
20260507184643 22 226 3.2 11.3 0.00 0.00 0.00 66 1017.7
20260507184542 22 250 3.2 11.3 0.00 0.00 0.00 65 1017.8
20260507184443 22 211 3.2 11.3 0.00 0.00 0.00 65 1017.8
20260507184343 22 208 3.2 11.3 0.00 0.00 0.00 65 1017.8
20260507184243 22 233 3.2 11.3 0.00 0.00 0.00 66 1017.8
20260507184221 22 224 3.2 11.3 0.00 0.00 0.00 67 1017.8
20260507184145 22 228 3.2 11.3 0.00 0.00 0.00 67 1017.7
20260507184043 22 226 3.2 11.3 0.00 0.00 0.00 68 1017.8
20260507183944 22 226 3.2 11.3 0.00 0.00 0.00 67 1017.8
20260507183839 22 224 3.2 9.7 0.00 0.00 0.00 67 1017.8
20260507183721 22 207 3.2 9.7 0.00 0.00 0.00 67 1017.8
20260507183639 22 200 3.2 9.7 0.00 0.00 0.00 67 1017.8
20260507183539 22 231 3.2 9.7 0.00 0.00 0.00 66 1017.8
20260507183439 22 235 3.2 9.7 0.00 0.00 0.00 67 1017.9
20260507183339 22 221 4.8 9.7 0.00 0.00 0.00 67 1017.9
20260507183239 22 233 4.8 12.9 0.00 0.00 0.00 67 1017.9
20260507183222 22 252 4.8 12.9 0.00 0.00 0.00 67 1017.9
20260507183144 22 217 4.8 12.9 0.00 0.00 0.00 67 1017.9
20260507183039 22 216 4.8 12.9 0.00 0.00 0.00 66 1017.9
20260507182940 22 233 3.2 12.9 0.00 0.00 0.00 67 1017.9
20260507182839 22 239 3.2 12.9 0.00 0.00 0.00 68 1017.9
20260507182721 22 155 3.2 12.9 0.00 0.00 0.00 69 1017.9
20260507182639 22 155 3.2 12.9 0.00 0.00 0.00 67 1017.9
20260507182541 22 146 3.2 12.9 0.00 0.00 0.00 68 1017.9
20260507182445 22 150 1.6 9.7 0.00 0.00 0.00 65 1017.9
20260507182439 22 243 3.2 12.9 0.00 0.00 0.00 67 1017.9
20260507182342 22 205 3.2 12.9 0.00 0.00 0.00 66 1017.9
20260507182333 22 201 1.6 9.7 0.00 0.00 0.00 65 1017.9
20260507182139 22 153 1.6 9.7 0.00 0.00 0.00 66 1017.9
20260507182039 22 210 1.6 9.7 0.00 0.00 0.00 67 1018.0
20260507181944 22 314 3.2 9.7 0.00 0.00 0.00 69 1018.0
20260507181935 22 314 3.2 9.7 0.00 0.00 0.00 67 1018.0
20260507181835 22 314 3.2 9.7 0.00 0.00 0.00 68 1018.0
20260507181827 22 314 3.2 9.7 0.00 0.00 0.00 69 1018.0
20260507181635 22 262 3.2 9.7 0.00 0.00 0.00 68 1018.0
20260507181535 22 240 3.2 9.7 0.00 0.00 0.00 68 1017.9
20260507181435 22 216 3.2 9.7 0.00 0.00 0.00 67 1017.9
20260507181335 22 186 3.2 9.7 0.00 0.00 0.00 68 1017.9
20260507181235 21 234 3.2 11.3 0.00 0.00 0.00 69 1018.0
20260507181217 21 231 3.2 11.3 0.00 0.00 0.00 69 1018.0
20260507181135 21 74 4.8 11.3 0.00 0.00 0.00 68 1018.0
20260507181035 21 139 3.2 11.3 0.00 0.00 0.00 68 1018.0
20260507180934 21 242 3.2 11.3 0.00 0.00 0.00 68 1018.0
20260507180835 21 252 3.2 11.3 0.00 0.00 0.00 69 1018.0
20260507180740 21 212 3.2 11.3 0.00 0.00 0.00 69 1017.9
20260507180730 21 208 3.2 11.3 0.00 0.00 0.00 69 1017.9
20260507180638 21 143 3.2 11.3 0.00 0.00 0.00 69 1018.0
20260507180535 21 225 3.2 11.3 0.00 0.00 0.00 69 1018.0
20260507180439 21 212 1.6 8.0 0.00 0.00 0.00 67 1018.0
20260507180434 21 187 3.2 11.3 0.00 0.00 0.00 67 1018.0
20260507180336 21 233 1.6 11.3 0.00 0.00 0.00 67 1018.0
20260507180327 21 236 1.6 8.0 0.00 0.00 0.00 67 1018.0
20260507180135 21 163 1.6 8.0 0.00 0.00 0.00 67 1018.0
20260507180031 21 219 1.6 8.0 0.00 0.00 0.00 69 1018.0
20260507175931 21 224 1.6 8.0 0.00 0.00 0.00 68 1018.0
20260507175831 21 224 1.6 8.0 0.00 0.00 0.00 68 1018.0
20260507175731 21 226 1.6 8.0 0.00 0.00 0.00 68 1018.0
20260507175720 21 229 1.6 8.0 0.00 0.00 0.00 68 1018.0
20260507175631 21 233 1.6 8.0 0.00 0.00 0.00 67 1018.1
20260507175531 21 232 1.6 6.4 0.00 0.00 0.00 68 1018.1
20260507175431 21 238 1.6 8.0 0.00 0.00 0.00 69 1018.1
20260507175331 21 143 1.6 8.0 0.00 0.00 0.00 69 1018.1
20260507175234 21 138 1.6 8.0 0.00 0.00 0.00 68 1018.1
20260507175216 21 139 1.6 8.0 0.00 0.00 0.00 68 1018.1
20260507175131 21 232 1.6 8.0 0.00 0.00 0.00 68 1018.1
20260507175031 21 233 1.6 8.0 0.00 0.00 0.00 68 1018.1
20260507174931 21 233 1.6 8.0 0.00 0.00 0.00 68 1018.1
20260507174830 21 218 1.6 8.0 0.00 0.00 0.00 68 1018.1
20260507174732 21 217 1.6 8.0 0.00 0.00 0.00 69 1018.0
20260507174719 21 298 1.6 8.0 0.00 0.00 0.00 69 1018.0
20260507174631 21 219 1.6 8.0 0.00 0.00 0.00 69 1018.1
20260507174532 21 233 0.0 8.0 0.00 0.00 0.00 69 1018.1
20260507174431 21 223 0.0 3.2 0.00 0.00 0.00 70 1018.1
20260507174331 21 222 0.0 3.2 0.00 0.00 0.00 70 1018.1
20260507174217 21 222 0.0 3.2 0.00 0.00 0.00 70 1018.1
20260507174126 21 278 0.0 3.2 0.00 0.00 0.00 70 1018.1
20260507174027 21 278 0.0 3.2 0.00 0.00 0.00 70 1018.1
20260507173927 21 278 0.0 3.2 0.00 0.00 0.00 70 1018.1
20260507173828 21 139 0.0 3.2 0.00 0.00 0.00 70 1018.1
20260507173716 21 138 0.0 3.2 0.00 0.00 0.00 71 1018.1
20260507173626 21 283 0.0 3.2 0.00 0.00 0.00 71 1018.1
20260507173527 21 283 1.6 6.4 0.00 0.00 0.00 72 1018.1
20260507173427 21 283 1.6 9.7 0.00 0.00 0.00 72 1018.1
20260507173327 20 232 1.6 9.7 0.00 0.00 0.00 72 1018.1
20260507173227 20 226 1.6 9.7 0.00 0.00 0.00 72 1018.1
20260507173213 20 226 1.6 9.7 0.00 0.00 0.00 73 1018.1
20260507173127 20 226 1.6 9.7 0.00 0.00 0.00 73 1018.1
20260507173027 20 226 1.6 9.7 0.00 0.00 0.00 73 1018.1
20260507172927 20 226 1.6 9.7 0.00 0.00 0.00 73 1018.1
20260507172827 20 226 3.2 9.7 0.00 0.00 0.00 73 1018.1
20260507172714 20 214 3.2 9.7 0.00 0.00 0.00 73 1018.2
20260507172627 20 260 3.2 9.7 0.00 0.00 0.00 73 1018.2
20260507172527 20 235 1.6 11.3 0.00 0.00 0.00 73 1018.1
20260507172428 20 231 1.6 11.3 0.00 0.00 0.00 74 1018.1
20260507172328 20 214 1.6 11.3 0.00 0.00 0.00 74 1018.1
20260507172213 20 238 1.6 11.3 0.00 0.00 0.00 74 1018.2
20260507172158 19 285 4.8 11.3 0.00 0.00 0.00 75 1018.2
20260507172123 20 238 3.2 11.3 0.00 0.00 0.00 75 1018.1
20260507172042 19 200 3.2 11.3 0.00 0.00 0.00 75 1018.2
20260507171924 19 250 3.2 11.3 0.00 0.00 0.00 74 1018.1
20260507171832 19 250 3.2 11.3 0.00 0.00 0.00 75 1018.2
20260507171824 19 285 4.8 11.3 0.00 0.00 0.00 75 1018.2
20260507171623 19 285 3.2 11.3 0.00 0.00 0.00 74 1018.1
20260507171523 19 238 3.2 11.3 0.00 0.00 0.00 75 1018.2
20260507171423 19 232 3.2 11.3 0.00 0.00 0.00 76 1018.2
20260507171323 19 235 3.2 11.3 0.00 0.00 0.00 76 1018.2
20260507171215 18 233 3.2 11.3 0.00 0.00 0.00 76 1018.2
20260507171123 18 233 3.2 11.3 0.00 0.00 0.00 75 1018.3
20260507171023 18 221 1.6 11.3 0.00 0.00 0.00 75 1018.2
20260507170923 19 215 1.6 11.3 0.00 0.00 0.00 74 1018.3
20260507170823 19 214 1.6 11.3 0.00 0.00 0.00 75 1018.3
20260507170724 19 217 1.6 6.4 0.00 0.00 0.00 76 1018.3
20260507170714 19 219 1.6 6.4 0.00 0.00 0.00 76 1018.3
20260507170623 18 251 1.6 8.0 0.00 0.00 0.00 77 1018.2
20260507170522 18 250 3.2 9.7 0.00 0.00 0.00 77 1018.3
20260507170423 18 250 3.2 9.7 0.00 0.00 0.00 77 1018.3
20260507170319 18 314 3.2 9.7 0.00 0.00 0.00 77 1018.3
20260507170223 18 314 3.2 9.7 0.00 0.00 0.00 78 1018.3
20260507170213 18 315 3.2 9.7 0.00 0.00 0.00 78 1018.3
20260507170119 18 270 3.2 9.7 0.00 0.00 0.00 78 1018.3
20260507170019 18 270 3.2 9.7 0.00 0.00 0.00 79 1018.3
20260507165919 18 270 4.8 9.7 0.00 0.00 0.00 78 1018.3
20260507165819 18 235 4.8 9.7 0.00 0.00 0.00 78 1018.3
20260507165723 18 146 4.8 9.7 0.00 0.00 0.00 77 1018.2
20260507165713 18 161 4.8 9.7 0.00 0.00 0.00 77 1018.2
20260507165620 18 225 4.8 9.7 0.00 0.00 0.00 78 1018.3
20260507165519 18 245 3.2 9.7 0.00 0.00 0.00 78 1018.3
20260507165419 18 221 3.2 9.7 0.00 0.00 0.00 79 1018.3
20260507165319 18 236 3.2 9.7 0.00 0.00 0.00 79 1018.2
20260507165213 18 236 3.2 9.7 0.00 0.00 0.00 79 1018.3
20260507165119 18 256 3.2 9.7 0.00 0.00 0.00 78 1018.3
20260507165019 18 269 3.2 9.7 0.00 0.00 0.00 77 1018.3
20260507164918 18 212 1.6 9.7 0.00 0.00 0.00 77 1018.3
20260507164819 18 218 1.6 9.7 0.00 0.00 0.00 77 1018.3
20260507164719 18 256 1.6 9.7 0.00 0.00 0.00 78 1018.3
20260507164709 18 250 1.6 9.7 0.00 0.00 0.00 78 1018.3
20260507164619 18 238 1.6 8.0 0.00 0.00 0.00 78 1018.3
20260507164519 18 238 1.6 8.0 0.00 0.00 0.00 77 1018.3
20260507164415 18 238 1.6 8.0 0.00 0.00 0.00 79 1018.3
20260507164315 18 304 1.6 6.4 0.00 0.00 0.00 79 1018.3
20260507164218 18 305 1.6 6.4 0.00 0.00 0.00 79 1018.3
20260507164208 18 242 1.6 6.4 0.00 0.00 0.00 79 1018.3
20260507164115 18 207 1.6 6.4 0.00 0.00 0.00 80 1018.2
20260507164015 18 207 1.6 6.4 0.00 0.00 0.00 79 1018.3
20260507163915 17 207 1.6 6.4 0.00 0.00 0.00 79 1018.2
20260507163815 17 207 1.6 6.4 0.00 0.00 0.00 78 1018.2
20260507163709 17 224 1.6 6.4 0.00 0.00 0.00 79 1018.2
20260507163615 17 212 1.6 6.4 0.00 0.00 0.00 79 1018.2
20260507163515 17 219 0.0 6.4 0.00 0.00 0.00 80 1018.2
20260507163415 17 233 0.0 6.4 0.00 0.00 0.00 80 1018.3
20260507163316 17 233 1.6 6.4 0.00 0.00 0.00 80 1018.3
20260507163221 17 231 0.0 6.4 0.00 0.00 0.00 81 1018.3
20260507163211 17 232 0.0 6.4 0.00 0.00 0.00 81 1018.3
20260507163015 17 232 1.6 6.4 0.00 0.00 0.00 81 1018.3
20260507162915 17 232 1.6 6.4 0.00 0.00 0.00 81 1018.3
20260507162815 17 231 1.6 6.4 0.00 0.00 0.00 82 1018.3
20260507162718 17 230 1.6 6.4 0.00 0.00 0.00 82 1018.3
20260507162708 17 231 1.6 6.4 0.00 0.00 0.00 82 1018.3
20260507162615 17 253 1.6 4.8 0.00 0.00 0.00 83 1018.3
20260507162510 17 49 1.6 6.4 0.00 0.00 0.00 83 1018.3
20260507162411 17 179 3.2 6.4 0.00 0.00 0.00 82 1018.3
20260507162311 17 222 3.2 6.4 0.00 0.00 0.00 84 1018.4
20260507162212 16 222 3.2 6.4 0.00 0.00 0.00 83 1018.4
20260507162111 16 222 3.2 6.4 0.00 0.00 0.00 83 1018.4
20260507162011 16 238 3.2 6.4 0.00 0.00 0.00 82 1018.4
20260507161911 16 225 3.2 6.4 0.00 0.00 0.00 82 1018.4
20260507161811 16 224 3.2 6.4 0.00 0.00 0.00 82 1018.4
20260507161713 16 172 1.6 6.4 0.00 0.00 0.00 82 1018.4
20260507161611 16 215 1.6 6.4 0.00 0.00 0.00 82 1018.4
20260507161510 16 164 1.6 6.4 0.00 0.00 0.00 82 1018.4
20260507161411 16 200 1.6 8.0 0.00 0.00 0.00 82 1018.4
20260507161310 16 225 1.6 8.0 0.00 0.00 0.00 82 1018.4
20260507161213 16 226 1.6 8.0 0.00 0.00 0.00 82 1018.4
20260507161111 16 226 1.6 8.0 0.00 0.00 0.00 84 1018.4
20260507161011 16 228 1.6 8.0 0.00 0.00 0.00 84 1018.4
20260507160911 16 222 1.6 8.0 0.00 0.00 0.00 84 1018.4
20260507160810 16 232 1.6 8.0 0.00 0.00 0.00 84 1018.4
20260507160713 16 232 1.6 8.0 0.00 0.00 0.00 84 1018.4
20260507160607 16 232 1.6 8.0 0.00 0.00 0.00 84 1018.4
20260507160507 16 232 1.6 8.0 0.00 0.00 0.00 84 1018.4
20260507160407 16 231 0.0 6.4 0.00 0.00 0.00 85 1018.4
20260507160307 16 219 0.0 3.2 0.00 0.00 0.00 86 1018.4
20260507160210 16 228 0.0 4.8 0.00 0.00 0.00 86 1018.4
20260507160107 16 228 0.0 4.8 0.00 0.00 0.00 86 1018.4
20260507160007 16 240 1.6 4.8 0.00 0.00 0.00 86 1018.4
20260507155907 16 240 1.6 4.8 0.00 0.00 0.00 86 1018.4
20260507155807 15 231 1.6 4.8 0.00 0.00 0.00 87 1018.4
20260507155710 15 229 1.6 4.8 0.00 0.00 0.00 87 1018.5
20260507155607 15 248 1.6 4.8 0.00 0.00 0.00 88 1018.5
20260507155507 15 248 1.6 4.8 0.00 0.00 0.00 88 1018.5
20260507155407 15 243 1.6 4.8 0.00 0.00 0.00 88 1018.5
20260507155307 15 240 1.6 4.8 0.00 0.00 0.00 88 1018.5
20260507155209 15 221 1.6 6.4 0.00 0.00 0.00 88 1018.5
20260507155107 15 218 1.6 6.4 0.00 0.00 0.00 88 1018.5
20260507155007 15 210 1.6 6.4 0.00 0.00 0.00 89 1018.5
20260507154927 15 226 1.6 6.4 0.00 0.00 0.00 90 1018.5
20260507154907 15 156 1.6 6.4 0.00 0.00 0.00 89 1018.5
20260507154823 15 149 1.6 6.4 0.00 0.00 0.00 90 1018.5
20260507154703 15 228 1.6 6.4 0.00 0.00 0.00 90 1018.5
20260507154603 15 229 1.6 6.4 0.00 0.00 0.00 90 1018.5
20260507154504 14 230 3.2 6.4 0.00 0.00 0.00 90 1018.5
20260507154403 14 229 3.2 6.4 0.00 0.00 0.00 90 1018.5
20260507154303 14 231 3.2 6.4 0.00 0.00 0.00 90 1018.5
20260507154209 14 232 3.2 6.4 0.00 0.00 0.00 91 1018.5
20260507154203 14 232 3.2 6.4 0.00 0.00 0.00 91 1018.5
20260507154103 14 142 3.2 6.4 0.00 0.00 0.00 91 1018.5
20260507154003 14 221 3.2 6.4 0.00 0.00 0.00 91 1018.5
20260507153904 14 228 3.2 6.4 0.00 0.00 0.00 91 1018.5
20260507153803 14 216 3.2 6.4 0.00 0.00 0.00 91 1018.5
20260507153710 13 235 3.2 6.4 0.00 0.00 0.00 91 1018.5
20260507153703 13 235 3.2 6.4 0.00 0.00 0.00 91 1018.5
20260507153647 13 132 1.6 6.4 0.00 0.00 0.00 92 1018.5
20260507153603 13 235 3.2 6.4 0.00 0.00 0.00 92 1018.5
20260507153539 13 230 1.6 6.4 0.00 0.00 0.00 92 1018.5
20260507153403 13 222 1.6 6.4 0.00 0.00 0.00 92 1018.5
20260507153320 13 243 1.6 6.4 0.00 0.00 0.00 92 1018.5
20260507153203 13 132 1.6 6.4 0.00 0.00 0.00 92 1018.5
20260507153103 13 235 3.2 8.0 0.00 0.00 0.00 92 1018.5
20260507153004 13 233 3.2 8.0 0.00 0.00 0.00 92 1018.5
20260507152902 13 232 3.2 8.0 0.00 0.00 0.00 92 1018.5
20260507152759 13 240 3.2 11.3 0.00 0.00 0.00 93 1018.5
20260507152706 13 233 3.2 11.3 0.00 0.00 0.00 93 1018.5
20260507152659 13 232 3.2 11.3 0.00 0.00 0.00 93 1018.5
20260507152559 13 235 3.2 11.3 0.00 0.00 0.00 92 1018.6
20260507152458 13 235 4.8 11.3 0.00 0.00 0.00 92 1018.5
20260507152359 13 237 4.8 11.3 0.00 0.00 0.00 92 1018.5
20260507152259 13 226 4.8 11.3 0.00 0.00 0.00 92 1018.5
20260507152205 13 187 4.8 11.3 0.00 0.00 0.00 92 1018.5
20260507152159 13 208 4.8 11.3 0.00 0.00 0.00 92 1018.5
20260507152059 13 233 4.8 11.3 0.00 0.00 0.00 92 1018.5
20260507151959 13 238 4.8 11.3 0.00 0.00 0.00 92 1018.5
20260507151858 13 243 4.8 11.3 0.00 0.00 0.00 92 1018.5
20260507151759 13 219 4.8 11.3 0.00 0.00 0.00 93 1018.5
20260507151705 13 245 4.8 11.3 0.00 0.00 0.00 93 1018.5
20260507151659 13 243 4.8 11.3 0.00 0.00 0.00 93 1018.5
20260507151559 13 235 4.8 11.3 0.00 0.00 0.00 93 1018.5
20260507151459 13 214 4.8 11.3 0.00 0.00 0.00 92 1018.5
20260507151359 13 228 4.8 11.3 0.00 0.00 0.00 92 1018.6
20260507151258 13 240 4.8 11.3 0.00 0.00 0.00 93 1018.6
20260507151205 13 245 4.8 11.3 0.00 0.00 0.00 93 1018.5
20260507151159 13 229 4.8 11.3 0.00 0.00 0.00 93 1018.5
20260507151059 13 257 4.8 11.3 0.00 0.00 0.00 93 1018.5
20260507150959 13 238 4.8 11.3 0.00 0.00 0.00 93 1018.5
20260507150855 13 228 4.8 11.3 0.00 0.00 0.00 93 1018.5
20260507150755 13 229 3.2 9.7 0.00 0.00 0.00 93 1018.5
20260507150701 12 226 3.2 9.7 0.00 0.00 0.00 93 1018.4
20260507150655 12 228 3.2 9.7 0.00 0.00 0.00 93 1018.4
20260507150556 12 222 3.2 9.7 0.00 0.00 0.00 93 1018.5
20260507150455 12 224 3.2 9.7 0.00 0.00 0.00 93 1018.5
20260507150355 12 207 3.2 9.7 0.00 0.00 0.00 93 1018.5
20260507150255 12 259 3.2 11.3 0.00 0.00 0.00 93 1018.5
20260507150203 12 212 3.2 11.3 0.00 0.00 0.00 93 1018.5
20260507150155 12 233 3.2 12.9 0.00 0.00 0.00 93 1018.5
20260507150055 12 186 4.8 12.9 0.00 0.00 0.00 93 1018.5
20260507145955 12 198 4.8 12.9 0.00 0.00 0.00 93 1018.5
20260507145855 12 228 4.8 12.9 0.00 0.00 0.00 93 1018.5
20260507145755 12 228 4.8 12.9 0.00 0.00 0.00 93 1018.5
20260507145655 12 228 6.4 12.9 0.00 0.00 0.00 93 1018.6
20260507145555 12 158 6.4 12.9 0.00 0.00 0.00 93 1018.5
20260507145455 12 195 6.4 12.9 0.00 0.00 0.00 93 1018.5
20260507145355 12 244 6.4 12.9 0.00 0.00 0.00 93 1018.5
20260507145256 12 238 6.4 12.9 0.00 0.00 0.00 93 1018.5
20260507145203 12 248 6.4 12.9 0.00 0.00 0.00 93 1018.6
20260507145155 12 248 6.4 11.3 0.00 0.00 0.00 93 1018.6
20260507145056 12 239 4.8 11.3 0.00 0.00 0.00 93 1018.5
20260507144951 12 230 4.8 11.3 0.00 0.00 0.00 93 1018.5
20260507144851 12 167 4.8 11.3 0.00 0.00 0.00 93 1018.6
20260507144751 12 222 4.8 11.3 0.00 0.00 0.00 93 1018.6
20260507144706 12 236 3.2 11.3 0.00 0.00 0.00 93 1018.5
20260507144651 12 224 3.2 11.3 0.00 0.00 0.00 93 1018.5
20260507144551 12 174 3.2 11.3 0.00 0.00 0.00 93 1018.6
20260507144451 12 233 3.2 11.3 0.00 0.00 0.00 93 1018.5
20260507144351 12 233 3.2 11.3 0.00 0.00 0.00 93 1018.5
20260507144250 12 215 3.2 8.0 0.00 0.00 0.00 93 1018.5
20260507144202 12 224 3.2 8.0 0.00 0.00 0.00 93 1018.6
20260507144151 12 226 3.2 9.7 0.00 0.00 0.00 93 1018.6
20260507144051 12 236 3.2 9.7 0.00 0.00 0.00 93 1018.5
20260507143950 12 234 4.8 11.3 0.00 0.00 0.00 93 1018.6
20260507143851 12 260 4.8 11.3 0.00 0.00 0.00 93 1018.6
20260507143751 12 239 4.8 11.3 0.00 0.00 0.00 93 1018.5
20260507143701 12 238 4.8 12.9 0.00 0.00 0.00 93 1018.5
20260507143651 12 250 4.8 12.9 0.00 0.00 0.00 93 1018.5
20260507143551 12 273 4.8 12.9 0.00 0.00 0.00 93 1018.5
20260507143451 12 219 4.8 12.9 0.00 0.00 0.00 93 1018.5
20260507143353 12 248 4.8 12.9 0.00 0.00 0.00 93 1018.6
20260507143251 12 233 4.8 12.9 0.00 0.00 0.00 93 1018.5
20260507143157 12 219 3.2 12.9 0.00 0.00 0.00 93 1018.5
20260507143151 12 221 3.2 12.9 0.00 0.00 0.00 93 1018.5
20260507143047 12 259 3.2 12.9 0.00 0.00 0.00 93 1018.5
20260507142947 12 269 3.2 12.9 0.00 0.00 0.00 93 1018.5
20260507142847 12 217 3.2 12.9 0.00 0.00 0.00 93 1018.4
20260507142747 12 249 1.6 12.9 0.00 0.00 0.00 93 1018.4
20260507142658 12 259 1.6 8.0 0.00 0.00 0.00 93 1018.4
20260507142650 12 155 1.6 8.0 0.00 0.00 0.00 93 1018.4
20260507142547 12 184 1.6 8.0 0.00 0.00 0.00 93 1018.4
20260507142447 12 217 3.2 8.0 0.00 0.00 0.00 93 1018.4
20260507142347 12 205 3.2 8.0 0.00 0.00 0.00 93 1018.3
20260507142247 12 186 3.2 8.0 0.00 0.00 0.00 93 1018.3
20260507142147 12 186 3.2 8.0 0.00 0.00 0.00 93 1018.3
20260507142137 12 221 3.2 8.0 0.00 0.00 0.00 93 1018.3
20260507142047 12 226 3.2 8.0 0.00 0.00 0.00 93 1018.3
20260507142024 12 238 3.2 8.0 0.00 0.00 0.00 93 1018.3
20260507141846 12 214 3.2 8.0 0.00 0.00 0.00 93 1018.3
20260507141807 12 226 3.2 8.0 0.00 0.00 0.00 93 1018.3
20260507141650 12 219 3.2 8.0 0.00 0.00 0.00 93 1018.3
20260507141547 12 231 4.8 8.0 0.00 0.00 0.00 93 1018.4
20260507141447 12 221 4.8 8.0 0.00 0.00 0.00 93 1018.4
20260507141349 12 212 4.8 8.0 0.00 0.00 0.00 93 1018.4
20260507141247 12 232 4.8 8.0 0.00 0.00 0.00 93 1018.4
20260507141159 12 222 4.8 8.0 0.00 0.00 0.00 93 1018.4
20260507141142 12 123 4.8 8.0 0.00 0.00 0.00 93 1018.4
20260507141043 12 173 4.8 8.0 0.00 0.00 0.00 93 1018.4
20260507140943 12 195 3.2 8.0 0.00 0.00 0.00 93 1018.4
20260507140917 12 241 3.2 8.0 0.00 0.00 0.00 93 1018.4
20260507140843 12 217 3.2 8.0 0.00 0.00 0.00 93 1018.4
20260507140808 12 236 3.2 8.0 0.00 0.00 0.00 93 1018.4
20260507140643 12 248 3.2 8.0 0.00 0.00 0.00 93 1018.3
20260507140544 12 240 3.2 8.0 0.00 0.00 0.00 93 1018.3
20260507140443 12 238 3.2 8.0 0.00 0.00 0.00 93 1018.4
20260507140343 12 231 1.6 8.0 0.00 0.00 0.00 93 1018.3
20260507140243 12 232 1.6 8.0 0.00 0.00 0.00 93 1018.4
20260507140156 12 236 1.6 6.4 0.00 0.00 0.00 93 1018.4
20260507140144 12 207 1.6 6.4 0.00 0.00 0.00 93 1018.3
20260507140043 12 188 1.6 6.4 0.00 0.00 0.00 93 1018.4
20260507135943 12 200 1.6 6.4 0.00 0.00 0.00 93 1018.3
20260507135843 12 200 1.6 6.4 0.00 0.00 0.00 93 1018.4
20260507135744 12 238 1.6 9.7 0.00 0.00 0.00 93 1018.3
20260507135657 12 224 1.6 9.7 0.00 0.00 0.00 93 1018.3
20260507135644 12 242 1.6 9.7 0.00 0.00 0.00 93 1018.3
20260507135542 12 158 1.6 9.7 0.00 0.00 0.00 93 1018.2
20260507135443 12 150 3.2 9.7 0.00 0.00 0.00 93 1018.2
20260507135344 12 203 3.2 9.7 0.00 0.00 0.00 93 1018.2
20260507135238 12 139 3.2 9.7 0.00 0.00 0.00 93 1018.2
20260507135157 12 140 3.2 9.7 0.00 0.00 0.00 93 1018.2
20260507135139 12 143 3.2 9.7 0.00 0.00 0.00 93 1018.2
20260507135039 12 212 3.2 9.7 0.00 0.00 0.00 93 1018.2
20260507134939 12 230 3.2 9.7 0.00 0.00 0.00 93 1018.2
20260507134839 12 155 3.2 9.7 0.00 0.00 0.00 93 1018.2
20260507134739 12 258 3.2 8.0 0.00 0.00 0.00 93 1018.2
20260507134653 12 238 3.2 8.0 0.00 0.00 0.00 93 1018.2
20260507134639 12 221 3.2 8.0 0.00 0.00 0.00 93 1018.2
20260507134539 12 232 3.2 8.0 0.00 0.00 0.00 93 1018.2
20260507134438 12 199 3.2 8.0 0.00 0.00 0.00 93 1018.2
20260507134339 12 177 3.2 8.0 0.00 0.00 0.00 93 1018.2
20260507134238 12 240 3.2 8.0 0.00 0.00 0.00 93 1018.1
20260507134153 12 245 3.2 8.0 0.00 0.00 0.00 93 1018.1
20260507134139 12 233 1.6 8.0 0.00 0.00 0.00 93 1018.1
20260507134038 12 238 1.6 8.0 0.00 0.00 0.00 93 1018.1
20260507133939 12 236 1.6 8.0 0.00 0.00 0.00 93 1018.1
20260507133839 12 236 3.2 8.0 0.00 0.00 0.00 93 1018.1
20260507133739 12 145 3.2 8.0 0.00 0.00 0.00 93 1018.1
20260507133653 12 145 3.2 8.0 0.00 0.00 0.00 93 1018.1
20260507133639 12 146 3.2 8.0 0.00 0.00 0.00 93 1018.1
20260507133540 12 229 3.2 8.0 0.00 0.00 0.00 93 1018.1
20260507133439 12 139 3.2 8.0 0.00 0.00 0.00 93 1018.1
20260507133336 12 228 3.2 8.0 0.00 0.00 0.00 93 1018.1
20260507133235 12 211 3.2 9.7 0.00 0.00 0.00 93 1018.1
20260507133153 12 243 3.2 9.7 0.00 0.00 0.00 93 1018.1
20260507133135 12 190 3.2 9.7 0.00 0.00 0.00 93 1018.1
20260507133035 12 141 3.2 9.7 0.00 0.00 0.00 93 1018.0
20260507132935 12 238 3.2 9.7 0.00 0.00 0.00 93 1018.0
20260507132834 12 252 3.2 9.7 0.00 0.00 0.00 93 1018.0
20260507132735 12 222 3.2 9.7 0.00 0.00 0.00 93 1017.9
20260507132652 12 222 3.2 9.7 0.00 0.00 0.00 93 1017.9
20260507132635 12 222 3.2 9.7 0.00 0.00 0.00 93 1018.0
20260507132535 12 222 3.2 9.7 0.00 0.00 0.00 93 1018.0
20260507132435 12 226 3.2 9.7 0.00 0.00 0.00 93 1018.0
20260507132334 12 242 3.2 9.7 0.00 0.00 0.00 93 1017.9
20260507132235 12 236 3.2 8.0 0.00 0.00 0.00 93 1018.0
20260507132154 12 225 3.2 8.0 0.00 0.00 0.00 93 1018.0
20260507132135 12 215 3.2 8.0 0.00 0.00 0.00 93 1017.9
20260507132035 12 215 3.2 8.0 0.00 0.00 0.00 93 1017.9
20260507131935 12 242 3.2 8.0 0.00 0.00 0.00 93 1017.9
20260507131835 12 232 3.2 8.0 0.00 0.00 0.00 93 1017.9
20260507131734 12 211 3.2 8.0 0.00 0.00 0.00 93 1017.9
20260507131653 12 235 3.2 8.0 0.00 0.00 0.00 93 1017.9
20260507131635 12 181 3.2 8.0 0.00 0.00 0.00 93 1017.9
20260507131535 12 145 3.2 8.0 0.00 0.00 0.00 93 1017.8
20260507131431 12 203 1.6 8.0 0.00 0.00 0.00 93 1017.8
20260507131409 12 233 1.6 8.0 0.00 0.00 0.00 93 1017.9
20260507131332 12 214 1.6 8.0 0.00 0.00 0.00 93 1017.9
20260507131304 12 211 1.6 8.0 0.00 0.00 0.00 93 1017.9
20260507131130 12 236 1.6 8.0 0.00 0.00 0.00 93 1017.8
20260507131031 12 210 1.6 8.0 0.00 0.00 0.00 93 1017.9
20260507130931 12 230 1.6 8.0 0.00 0.00 0.00 93 1017.8
20260507130832 12 207 1.6 4.8 0.00 0.00 0.00 93 1017.8
20260507130734 12 212 0.0 3.2 0.00 0.00 0.00 93 1017.9
20260507130652 12 214 0.0 3.2 0.00 0.00 0.00 93 1017.9
20260507130631 12 218 0.0 3.2 0.00 0.00 0.00 93 1017.8
20260507130532 12 218 1.6 3.2 0.00 0.00 0.00 93 1017.8
20260507130431 12 218 1.6 3.2 0.00 0.00 0.00 93 1017.8
20260507130330 12 218 1.6 3.2 0.00 0.00 0.00 93 1017.8
20260507130232 12 218 0.0 3.2 0.00 0.00 0.00 93 1017.8
20260507130148 12 218 0.0 3.2 0.00 0.00 0.00 92 1017.8
20260507130131 12 200 0.0 3.2 0.00 0.00 0.00 93 1017.8
20260507130030 12 139 0.0 3.2 0.00 0.00 0.00 92 1017.8
20260507125931 12 214 0.0 3.2 0.00 0.00 0.00 92 1017.8
20260507125914 12 214 0.0 3.2 0.00 0.00 0.00 92 1017.8
20260507125831 12 214 0.0 3.2 0.00 0.00 0.00 93 1017.8
20260507125759 12 214 0.0 3.2 0.00 0.00 0.00 92 1017.8
20260507125631 12 214 0.0 3.2 0.00 0.00 0.00 92 1017.8
20260507125527 12 214 0.0 3.2 0.00 0.00 0.00 92 1017.8
20260507125427 12 214 0.0 3.2 0.00 0.00 0.00 92 1017.8
20260507125327 12 214 0.0 3.2 0.00 0.00 0.00 92 1017.8
20260507125228 12 215 0.0 3.2 0.00 0.00 0.00 92 1017.8
20260507125138 12 198 0.0 3.2 0.00 0.00 0.00 92 1017.8
20260507125127 12 217 0.0 3.2 0.00 0.00 0.00 92 1017.8
20260507125037 12 217 0.0 3.2 0.00 0.00 0.00 92 1017.8
20260507125028 12 217 0.0 3.2 0.00 0.00 0.00 92 1017.8
20260507124827 12 223 0.0 3.2 0.00 0.00 0.00 92 1017.8
20260507124800 12 198 0.0 3.2 0.00 0.00 0.00 92 1017.8
20260507124627 12 198 0.0 3.2 0.00 0.00 0.00 92 1017.7
20260507124528 12 198 0.0 3.2 0.00 0.00 0.00 92 1017.7
20260507124427 12 198 0.0 3.2 0.00 0.00 0.00 92 1017.7
20260507124327 12 198 0.0 3.2 0.00 0.00 0.00 92 1017.7
20260507124227 12 198 0.0 3.2 0.00 0.00 0.00 92 1017.7
20260507124127 12 231 0.0 1.6 0.00 0.00 0.00 92 1017.7
20260507124027 12 231 0.0 1.6 0.00 0.00 0.00 92 1017.7
20260507123927 12 231 0.0 1.6 0.00 0.00 0.00 92 1017.7
20260507123827 12 231 0.0 1.6 0.00 0.00 0.00 92 1017.7
20260507123727 12 141 0.0 1.6 0.00 0.00 0.00 92 1017.7
20260507123649 12 139 0.0 1.6 0.00 0.00 0.00 92 1017.7
20260507123623 12 141 0.0 1.6 0.00 0.00 0.00 92 1017.7
20260507123523 12 141 0.0 1.6 0.00 0.00 0.00 92 1017.7
20260507123422 12 141 0.0 1.6 0.00 0.00 0.00 92 1017.7
20260507123323 12 139 0.0 1.6 0.00 0.00 0.00 92 1017.7
20260507123223 12 139 0.0 1.6 0.00 0.00 0.00 92 1017.7
20260507123149 12 139 0.0 1.6 0.00 0.00 0.00 92 1017.7
20260507123124 12 141 0.0 1.6 0.00 0.00 0.00 92 1017.7
20260507123023 12 141 0.0 1.6 0.00 0.00 0.00 92 1017.7
20260507122923 12 139 0.0 1.6 0.00 0.00 0.00 92 1017.7
20260507122823 12 139 0.0 1.6 0.00 0.00 0.00 92 1017.7
20260507122723 12 139 0.0 1.6 0.00 0.00 0.00 92 1017.7
20260507122623 12 139 0.0 3.2 0.00 0.00 0.00 92 1017.7
20260507122523 12 140 0.0 3.2 0.00 0.00 0.00 92 1017.7
20260507122423 12 140 0.0 3.2 0.00 0.00 0.00 92 1017.7
20260507122323 12 225 0.0 4.8 0.00 0.00 0.00 92 1017.7
20260507122223 12 225 1.6 6.4 0.00 0.00 0.00 92 1017.7
20260507122123 12 225 1.6 6.4 0.00 0.00 0.00 92 1017.7
20260507122023 12 225 1.6 6.4 0.00 0.00 0.00 92 1017.7
20260507121923 12 146 1.6 6.4 0.00 0.00 0.00 92 1017.7
20260507121823 12 148 1.6 6.4 0.00 0.00 0.00 92 1017.7
20260507121719 12 173 0.0 6.4 0.00 0.00 0.00 92 1017.7
20260507121648 12 200 0.0 6.4 0.00 0.00 0.00 92 1017.7
20260507121619 12 200 1.6 6.4 0.00 0.00 0.00 92 1017.7
20260507121518 12 200 1.6 6.4 0.00 0.00 0.00 92 1017.7
20260507121419 12 155 1.6 6.4 0.00 0.00 0.00 92 1017.7
20260507121319 12 207 0.0 6.4 0.00 0.00 0.00 92 1017.7
20260507121219 12 232 0.0 3.2 0.00 0.00 0.00 92 1017.7
20260507121119 12 232 0.0 3.2 0.00 0.00 0.00 92 1017.7
20260507121019 12 232 0.0 3.2 0.00 0.00 0.00 92 1017.7
20260507120920 12 233 0.0 3.2 0.00 0.00 0.00 92 1017.7
20260507120912 12 232 0.0 3.2 0.00 0.00 0.00 92 1017.7
20260507120819 12 232 0.0 3.2 0.00 0.00 0.00 92 1017.7
20260507120759 12 232 0.0 3.2 0.00 0.00 0.00 92 1017.7
20260507120619 12 232 0.0 3.2 0.00 0.00 0.00 92 1017.7
20260507120518 12 236 0.0 3.2 0.00 0.00 0.00 92 1017.6
20260507120419 12 236 0.0 3.2 0.00 0.00 0.00 92 1017.6
20260507120404 12 236 0.0 3.2 0.00 0.00 0.00 92 1017.6
20260507120319 12 236 0.0 3.2 0.00 0.00 0.00 92 1017.6
20260507120255 12 236 0.0 3.2 0.00 0.00 0.00 92 1017.6
20260507120119 12 236 0.0 3.2 0.00 0.00 0.00 92 1017.6
20260507120019 12 230 0.0 3.2 0.00 0.00 0.00 92 1017.6
20260507115920 12 198 0.0 3.2 0.00 0.00 0.00 92 1017.6
20260507115815 12 197 0.0 4.8 0.00 0.00 0.00 92 1017.6
20260507115715 12 197 0.0 4.8 0.00 0.00 0.00 92 1017.6
20260507115648 12 198 0.0 4.8 0.00 0.00 0.00 92 1017.6
20260507115614 12 197 1.6 4.8 0.00 0.00 0.00 92 1017.6
20260507115515 12 197 1.6 4.8 0.00 0.00 0.00 92 1017.6
20260507115417 12 197 1.6 4.8 0.00 0.00 0.00 92 1017.6
20260507115409 12 198 1.6 4.8 0.00 0.00 0.00 92 1017.7
20260507115315 12 198 1.6 4.8 0.00 0.00 0.00 92 1017.7
20260507115255 12 198 1.6 4.8 0.00 0.00 0.00 92 1017.7
20260507115015 12 197 1.6 4.8 0.00 0.00 0.00 92 1017.6
20260507114916 12 150 1.6 4.8 0.00 0.00 0.00 92 1017.6
20260507114816 12 203 1.6 4.8 0.00 0.00 0.00 92 1017.6
20260507114715 12 229 1.6 4.8 0.00 0.00 0.00 92 1017.6
20260507114647 12 211 1.6 4.8 0.00 0.00 0.00 92 1017.6
20260507114615 12 211 1.6 4.8 0.00 0.00 0.00 92 1017.6
20260507114515 12 229 1.6 4.8 0.00 0.00 0.00 92 1017.6
20260507114416 12 211 1.6 4.8 0.00 0.00 0.00 92 1017.6
20260507114407 12 198 1.6 3.2 0.00 0.00 0.00 92 1017.6
20260507114314 12 228 1.6 3.2 0.00 0.00 0.00 92 1017.6
20260507114258 12 198 1.6 3.2 0.00 0.00 0.00 92 1017.6
20260507114115 12 198 1.6 3.2 0.00 0.00 0.00 92 1017.6
20260507114015 12 243 1.6 3.2 0.00 0.00 0.00 92 1017.6
20260507113911 12 228 0.0 3.2 0.00 0.00 0.00 92 1017.6
20260507113811 12 217 0.0 3.2 0.00 0.00 0.00 92 1017.6
20260507113711 12 197 0.0 3.2 0.00 0.00 0.00 92 1017.6
20260507113648 12 217 0.0 3.2 0.00 0.00 0.00 92 1017.6
20260507113611 12 217 0.0 3.2 0.00 0.00 0.00 92 1017.6
20260507113511 12 214 0.0 3.2 0.00 0.00 0.00 92 1017.6
20260507113411 12 162 0.0 3.2 0.00 0.00 0.00 92 1017.6
20260507113311 12 214 0.0 1.6 0.00 0.00 0.00 92 1017.6
20260507113211 12 146 0.0 1.6 0.00 0.00 0.00 92 1017.6
20260507113142 12 146 0.0 1.6 0.00 0.00 0.00 92 1017.6
20260507113111 12 146 0.0 1.6 0.00 0.00 0.00 92 1017.6
20260507113011 12 146 0.0 1.6 0.00 0.00 0.00 92 1017.6
20260507112912 12 146 0.0 1.6 0.00 0.00 0.00 92 1017.6
20260507112903 12 146 0.0 1.6 0.00 0.00 0.00 92 1017.6
20260507112812 12 146 0.0 1.6 0.00 0.00 0.00 92 1017.6
20260507112754 12 146 0.0 1.6 0.00 0.00 0.00 92 1017.6
20260507112611 12 146 0.0 1.6 0.00 0.00 0.00 92 1017.6
20260507112511 12 146 0.0 1.6 0.00 0.00 0.00 92 1017.7
20260507112411 12 211 0.0 1.6 0.00 0.00 0.00 92 1017.7
20260507112311 12 211 0.0 1.6 0.00 0.00 0.00 92 1017.7
20260507112210 12 212 0.0 1.6 0.00 0.00 0.00 92 1017.7
20260507112111 12 211 0.0 0.0 0.00 0.00 0.00 92 1017.7
20260507112008 12 211 0.0 0.0 0.00 0.00 0.00 92 1017.7
20260507111907 12 211 0.0 0.0 0.00 0.00 0.00 92 1017.7
20260507111807 12 211 0.0 0.0 0.00 0.00 0.00 92 1017.6
20260507111708 12 211 0.0 0.0 0.00 0.00 0.00 92 1017.6
20260507111654 12 212 0.0 0.0 0.00 0.00 0.00 92 1017.6
20260507111606 12 212 0.0 0.0 0.00 0.00 0.00 92 1017.6
20260507111509 12 211 0.0 0.0 0.00 0.00 0.00 92 1017.6
20260507111411 12 212 0.0 0.0 0.00 0.00 0.00 92 1017.6
20260507111407 12 211 0.0 0.0 0.00 0.00 0.00 92 1017.6
20260507111307 12 211 0.0 0.0 0.00 0.00 0.00 92 1017.6
20260507111251 12 211 0.0 0.0 0.00 0.00 0.00 92 1017.6
20260507111107 12 211 0.0 0.0 0.00 0.00 0.00 92 1017.6
20260507111007 12 211 0.0 0.0 0.00 0.00 0.00 92 1017.6
20260507110907 12 211 0.0 0.0 0.00 0.00 0.00 92 1017.6
20260507110807 12 211 0.0 0.0 0.00 0.00 0.00 92 1017.6
20260507110707 12 211 0.0 0.0 0.00 0.00 0.00 92 1017.6
20260507110641 12 211 0.0 0.0 0.00 0.00 0.00 92 1017.6
20260507110607 12 212 0.0 0.0 0.00 0.00 0.00 92 1017.6
20260507110508 12 211 0.0 0.0 0.00 0.00 0.00 92 1017.6
20260507110407 12 211 0.0 0.0 0.00 0.00 0.00 92 1017.5
20260507110307 12 211 0.0 1.6 0.00 0.00 0.00 92 1017.5
20260507110207 12 212 0.0 1.6 0.00 0.00 0.00 92 1017.6
20260507110141 12 211 0.0 1.6 0.00 0.00 0.00 92 1017.5
20260507110103 12 210 0.0 1.6 0.00 0.00 0.00 92 1017.5
20260507110003 12 211 0.0 1.6 0.00 0.00 0.00 92 1017.5
20260507105903 12 211 0.0 1.6 0.00 0.00 0.00 91 1017.5
20260507105803 12 211 0.0 1.6 0.00 0.00 0.00 91 1017.5
20260507105641 12 211 0.0 1.6 0.00 0.00 0.00 91 1017.5
20260507105602 12 212 0.0 1.6 0.00 0.00 0.00 91 1017.5
20260507105503 12 211 0.0 1.6 0.00 0.00 0.00 91 1017.5
20260507105407 12 211 0.0 0.0 0.00 0.00 0.00 91 1017.5
20260507105403 12 211 0.0 1.6 0.00 0.00 0.00 91 1017.5
20260507105306 12 211 0.0 1.6 0.00 0.00 0.00 91 1017.5
20260507105252 12 211 0.0 1.6 0.00 0.00 0.00 91 1017.5
20260507105103 12 211 0.0 1.6 0.00 0.00 0.00 91 1017.5
20260507105003 12 211 0.0 1.6 0.00 0.00 0.00 91 1017.5
20260507104903 12 211 0.0 1.6 0.00 0.00 0.00 91 1017.5
20260507104804 13 212 0.0 1.6 0.00 0.00 0.00 91 1017.5
20260507104637 13 211 0.0 1.6 0.00 0.00 0.00 91 1017.5
20260507104602 13 211 0.0 1.6 0.00 0.00 0.00 91 1017.5
20260507104504 13 210 0.0 1.6 0.00 0.00 0.00 91 1017.5
20260507104404 13 211 0.0 1.6 0.00 0.00 0.00 91 1017.5
20260507104303 13 211 0.0 1.6 0.00 0.00 0.00 91 1017.5
20260507104159 13 211 0.0 1.6 0.00 0.00 0.00 91 1017.4
20260507104136 13 211 0.0 1.6 0.00 0.00 0.00 91 1017.5
20260507104059 13 210 0.0 1.6 0.00 0.00 0.00 91 1017.5
20260507103959 13 211 0.0 1.6 0.00 0.00 0.00 91 1017.5
20260507103906 13 211 0.0 1.6 0.00 0.00 0.00 91 1017.4
20260507103859 13 211 0.0 1.6 0.00 0.00 0.00 91 1017.5
20260507103800 13 211 0.0 1.6 0.00 0.00 0.00 91 1017.5
20260507103752 13 211 0.0 1.6 0.00 0.00 0.00 91 1017.5
20260507103559 13 211 0.0 1.6 0.00 0.00 0.00 91 1017.4
20260507103459 13 211 0.0 1.6 0.00 0.00 0.00 91 1017.5
20260507103403 13 211 0.0 4.8 0.00 0.00 0.00 90 1017.5
20260507103359 13 211 0.0 1.6 0.00 0.00 0.00 91 1017.5
20260507103259 13 210 0.0 3.2 0.00 0.00 0.00 91 1017.5
20260507103249 13 211 0.0 3.2 0.00 0.00 0.00 90 1017.6
20260507103059 13 212 0.0 4.8 0.00 0.00 0.00 90 1017.5
20260507102959 13 211 0.0 4.8 0.00 0.00 0.00 91 1017.5
20260507102859 13 211 0.0 4.8 0.00 0.00 0.00 90 1017.5
20260507102759 13 212 1.6 4.8 0.00 0.00 0.00 91 1017.6
20260507102637 13 211 1.6 4.8 0.00 0.00 0.00 90 1017.6
20260507102559 13 211 1.6 4.8 0.00 0.00 0.00 91 1017.6
20260507102459 13 211 1.6 4.8 0.00 0.00 0.00 91 1017.5
20260507102358 13 211 1.6 4.8 0.00 0.00 0.00 91 1017.6
20260507102255 13 235 1.6 4.8 0.00 0.00 0.00 91 1017.5
20260507102155 13 236 1.6 4.8 0.00 0.00 0.00 90 1017.5
20260507102138 13 225 1.6 3.2 0.00 0.00 0.00 90 1017.5
20260507102054 13 148 1.6 3.2 0.00 0.00 0.00 90 1017.5
20260507101955 13 148 1.6 3.2 0.00 0.00 0.00 90 1017.5
20260507101855 13 148 1.6 4.8 0.00 0.00 0.00 90 1017.5
20260507101754 13 236 1.6 4.8 0.00 0.00 0.00 90 1017.5
20260507101637 13 236 1.6 4.8 0.00 0.00 0.00 90 1017.5
20260507101555 13 236 1.6 4.8 0.00 0.00 0.00 90 1017.5
20260507101455 13 229 1.6 4.8 0.00 0.00 0.00 90 1017.4
20260507101400 13 226 3.2 6.4 0.00 0.00 0.00 91 1017.5
20260507101355 13 229 1.6 6.4 0.00 0.00 0.00 90 1017.4
20260507101255 13 229 1.6 6.4 0.00 0.00 0.00 90 1017.4
20260507101246 13 226 1.6 6.4 0.00 0.00 0.00 91 1017.4
20260507101055 13 226 3.2 6.4 0.00 0.00 0.00 91 1017.5
20260507100955 13 226 3.2 6.4 0.00 0.00 0.00 91 1017.4
20260507100855 13 174 1.6 6.4 0.00 0.00 0.00 91 1017.5
20260507100755 13 233 1.6 6.4 0.00 0.00 0.00 91 1017.5
20260507100655 13 198 1.6 6.4 0.00 0.00 0.00 91 1017.5
20260507100637 13 129 1.6 6.4 0.00 0.00 0.00 91 1017.5
20260507100555 13 236 1.6 6.4 0.00 0.00 0.00 91 1017.5
20260507100455 13 197 1.6 6.4 0.00 0.00 0.00 91 1017.5
20260507100351 13 228 0.0 4.8 0.00 0.00 0.00 91 1017.5
20260507100251 13 169 0.0 4.8 0.00 0.00 0.00 91 1017.4
20260507100151 13 221 0.0 4.8 0.00 0.00 0.00 91 1017.4
20260507100133 13 204 0.0 4.8 0.00 0.00 0.00 91 1017.5
20260507100051 13 231 0.0 4.8 0.00 0.00 0.00 90 1017.5
20260507095951 13 178 0.0 3.2 0.00 0.00 0.00 90 1017.5
20260507095851 13 203 0.0 3.2 0.00 0.00 0.00 90 1017.5
20260507095751 13 203 0.0 3.2 0.00 0.00 0.00 90 1017.5
20260507095632 13 203 0.0 3.2 0.00 0.00 0.00 90 1017.4
20260507095551 13 203 0.0 3.2 0.00 0.00 0.00 90 1017.4
20260507095451 13 203 1.6 3.2 0.00 0.00 0.00 90 1017.5
20260507095351 13 203 1.6 4.8 0.00 0.00 0.00 90 1017.5
20260507095251 13 203 1.6 4.8 0.00 0.00 0.00 90 1017.5
20260507095151 13 203 1.6 4.8 0.00 0.00 0.00 90 1017.5
20260507095132 13 203 1.6 4.8 0.00 0.00 0.00 90 1017.4
20260507095051 13 203 1.6 4.8 0.00 0.00 0.00 90 1017.4
20260507094951 13 210 1.6 4.8 0.00 0.00 0.00 90 1017.5
20260507094851 13 203 1.6 8.0 0.00 0.00 0.00 90 1017.5
20260507094750 13 203 1.6 8.0 0.00 0.00 0.00 90 1017.5
20260507094651 13 203 1.6 8.0 0.00 0.00 0.00 90 1017.4
20260507094633 13 203 1.6 8.0 0.00 0.00 0.00 90 1017.5
20260507094551 13 203 1.6 8.0 0.00 0.00 0.00 90 1017.5
20260507094447 13 198 1.6 8.0 0.00 0.00 0.00 90 1017.5
20260507094347 13 210 3.2 8.0 0.00 0.00 0.00 90 1017.5
20260507094247 13 231 3.2 8.0 0.00 0.00 0.00 90 1017.5
20260507094147 13 231 3.2 8.0 0.00 0.00 0.00 90 1017.5
20260507094133 13 230 3.2 8.0 0.00 0.00 0.00 90 1017.5
20260507094047 13 231 3.2 8.0 0.00 0.00 0.00 90 1017.5
20260507093946 13 219 3.2 8.0 0.00 0.00 0.00 90 1017.5
20260507093847 13 233 3.2 9.7 0.00 0.00 0.00 90 1017.5
20260507093747 13 232 3.2 9.7 0.00 0.00 0.00 90 1017.6
20260507093650 13 235 4.8 9.7 0.00 0.00 0.00 90 1017.6
20260507093633 13 235 3.2 9.7 0.00 0.00 0.00 90 1017.6
20260507093546 13 235 3.2 9.7 0.00 0.00 0.00 90 1017.6
20260507093447 13 240 3.2 9.7 0.00 0.00 0.00 90 1017.6
20260507093347 13 233 3.2 9.7 0.00 0.00 0.00 90 1017.6
20260507093246 13 203 3.2 9.7 0.00 0.00 0.00 90 1017.6
20260507093147 13 250 3.2 9.7 0.00 0.00 0.00 90 1017.6
20260507093132 13 233 3.2 9.7 0.00 0.00 0.00 90 1017.6
20260507093047 13 259 3.2 9.7 0.00 0.00 0.00 90 1017.6
20260507092947 13 232 3.2 9.7 0.00 0.00 0.00 90 1017.6
20260507092847 13 233 3.2 8.0 0.00 0.00 0.00 90 1017.6
20260507092747 13 233 3.2 8.0 0.00 0.00 0.00 90 1017.6
20260507092633 13 232 3.2 8.0 0.00 0.00 0.00 90 1017.6
20260507092543 13 193 3.2 8.0 0.00 0.00 0.00 90 1017.6
20260507092443 13 203 1.6 8.0 0.00 0.00 0.00 90 1017.6
20260507092343 13 212 1.6 8.0 0.00 0.00 0.00 90 1017.6
20260507092243 13 235 1.6 8.0 0.00 0.00 0.00 90 1017.6
20260507092132 13 233 1.6 8.0 0.00 0.00 0.00 90 1017.6
20260507092043 13 257 1.6 8.0 0.00 0.00 0.00 90 1017.6
20260507091943 13 222 1.6 8.0 0.00 0.00 0.00 90 1017.6
20260507091843 13 212 1.6 8.0 0.00 0.00 0.00 90 1017.6
20260507091743 13 217 1.6 8.0 0.00 0.00 0.00 90 1017.6
20260507091652 13 225 0.0 4.8 0.00 0.00 0.00 90 1017.6
20260507091641 13 203 0.0 3.2 0.00 0.00 0.00 90 1017.6
20260507091543 13 174 0.0 3.2 0.00 0.00 0.00 90 1017.6
20260507091444 13 174 0.0 3.2 0.00 0.00 0.00 90 1017.6
20260507091344 13 177 0.0 3.2 0.00 0.00 0.00 90 1017.6
20260507091243 13 177 0.0 3.2 0.00 0.00 0.00 90 1017.6
20260507091143 13 177 0.0 3.2 0.00 0.00 0.00 89 1017.7
20260507091129 13 205 0.0 3.2 0.00 0.00 0.00 89 1017.7
20260507091043 13 205 0.0 3.2 0.00 0.00 0.00 90 1017.7
20260507090943 13 205 0.0 3.2 0.00 0.00 0.00 89 1017.7
20260507090842 13 143 0.0 1.6 0.00 0.00 0.00 89 1017.7
20260507090743 13 143 0.0 1.6 0.00 0.00 0.00 89 1017.7
20260507090641 13 150 0.0 1.6 0.00 0.00 0.00 89 1017.7
20260507090539 13 150 0.0 1.6 0.00 0.00 0.00 89 1017.6
20260507090439 13 150 0.0 1.6 0.00 0.00 0.00 89 1017.6
20260507090339 13 136 0.0 1.6 0.00 0.00 0.00 89 1017.6
20260507090239 13 150 0.0 3.2 0.00 0.00 0.00 89 1017.6
20260507090128 13 151 0.0 3.2 0.00 0.00 0.00 89 1017.6
20260507090039 13 152 0.0 3.2 0.00 0.00 0.00 89 1017.6
20260507085939 13 167 0.0 3.2 0.00 0.00 0.00 89 1017.6
20260507085838 13 97 0.0 3.2 0.00 0.00 0.00 89 1017.7
20260507085739 13 98 0.0 3.2 0.00 0.00 0.00 89 1017.7
20260507085639 13 97 0.0 3.2 0.00 0.00 0.00 89 1017.7
20260507085628 13 98 0.0 3.2 0.00 0.00 0.00 89 1017.7
20260507085539 13 98 0.0 3.2 0.00 0.00 0.00 89 1017.7
20260507085439 13 98 0.0 3.2 0.00 0.00 0.00 89 1017.7
20260507085351 13 236 0.0 1.6 0.00 0.00 0.00 89 1017.7
20260507085339 13 152 0.0 3.2 0.00 0.00 0.00 89 1017.7
20260507085249 13 143 0.0 3.2 0.00 0.00 0.00 89 1017.7
20260507085240 13 236 0.0 1.6 0.00 0.00 0.00 89 1017.7
20260507085039 13 236 0.0 1.6 0.00 0.00 0.00 89 1017.7
20260507084939 13 236 0.0 1.6 0.00 0.00 0.00 89 1017.7
20260507084839 13 236 0.0 1.6 0.00 0.00 0.00 89 1017.7
20260507084735 13 236 0.0 1.6 0.00 0.00 0.00 89 1017.7
20260507084629 13 236 0.0 1.6 0.00 0.00 0.00 89 1017.7
20260507084535 13 236 0.0 1.6 0.00 0.00 0.00 88 1017.8
20260507084435 13 236 0.0 1.6 0.00 0.00 0.00 88 1017.7
20260507084351 13 236 0.0 1.6 0.00 0.00 0.00 88 1017.8
20260507084335 13 236 0.0 1.6 0.00 0.00 0.00 88 1017.8
20260507084248 13 236 0.0 1.6 0.00 0.00 0.00 88 1017.8
20260507084240 13 236 0.0 1.6 0.00 0.00 0.00 88 1017.8
20260507084035 13 236 0.0 1.6 0.00 0.00 0.00 88 1017.8
20260507083935 13 236 0.0 1.6 0.00 0.00 0.00 88 1017.8
20260507083835 13 237 0.0 1.6 0.00 0.00 0.00 88 1017.8
20260507083734 13 236 0.0 1.6 0.00 0.00 0.00 88 1017.8
20260507083630 13 236 0.0 1.6 0.00 0.00 0.00 88 1017.8
20260507083535 13 236 0.0 1.6 0.00 0.00 0.00 88 1017.8
20260507083435 13 236 0.0 1.6 0.00 0.00 0.00 88 1017.8
20260507083335 13 236 0.0 1.6 0.00 0.00 0.00 88 1017.8
20260507083235 13 236 0.0 1.6 0.00 0.00 0.00 87 1017.8
20260507083125 13 236 0.0 1.6 0.00 0.00 0.00 88 1017.8
20260507083035 14 237 0.0 1.6 0.00 0.00 0.00 88 1017.8
20260507082935 13 236 0.0 1.6 0.00 0.00 0.00 88 1017.7
20260507082831 14 236 0.0 1.6 0.00 0.00 0.00 88 1017.7
20260507082731 13 236 0.0 1.6 0.00 0.00 0.00 88 1017.8
20260507082626 13 236 0.0 1.6 0.00 0.00 0.00 88 1017.7
20260507082531 13 236 0.0 1.6 0.00 0.00 0.00 88 1017.7
20260507082431 13 236 0.0 1.6 0.00 0.00 0.00 87 1017.7
20260507082348 13 236 0.0 1.6 0.00 0.00 0.00 87 1017.8
20260507082331 13 236 0.0 1.6 0.00 0.00 0.00 87 1017.7
20260507082244 13 236 0.0 1.6 0.00 0.00 0.00 87 1017.8
20260507082236 13 236 0.0 1.6 0.00 0.00 0.00 87 1017.8
20260507082031 14 236 0.0 1.6 0.00 0.00 0.00 87 1017.7
20260507081931 14 236 0.0 1.6 0.00 0.00 0.00 87 1017.7
20260507081841 14 236 0.0 1.6 0.00 0.00 0.00 87 1017.7
20260507081831 14 236 0.0 1.6 0.00 0.00 0.00 87 1017.7
20260507081747 14 236 0.0 0.0 0.00 0.00 0.00 87 1017.7
20260507081735 14 236 0.0 1.6 0.00 0.00 0.00 87 1017.7
20260507081531 14 236 0.0 1.6 0.00 0.00 0.00 87 1017.7
20260507081431 14 236 0.0 1.6 0.00 0.00 0.00 87 1017.7
20260507081330 14 236 0.0 1.6 0.00 0.00 0.00 86 1017.7
20260507081234 14 237 0.0 1.6 0.00 0.00 0.00 86 1017.7
20260507081125 14 236 0.0 1.6 0.00 0.00 0.00 87 1017.7
20260507081031 14 236 0.0 1.6 0.00 0.00 0.00 86 1017.7
20260507080927 14 236 0.0 1.6 0.00 0.00 0.00 87 1017.7
20260507080826 14 236 0.0 1.6 0.00 0.00 0.00 86 1017.6
20260507080727 14 236 0.0 1.6 0.00 0.00 0.00 86 1017.6
20260507080628 14 236 0.0 1.6 0.00 0.00 0.00 86 1017.6
20260507080526 14 236 0.0 1.6 0.00 0.00 0.00 86 1017.7
20260507080428 14 236 0.0 1.6 0.00 0.00 0.00 86 1017.7
20260507080327 14 236 0.0 1.6 0.00 0.00 0.00 86 1017.7
20260507080227 14 236 0.0 1.6 0.00 0.00 0.00 86 1017.7
20260507080142 14 236 0.0 1.6 0.00 0.00 0.00 86 1017.6
20260507080027 14 236 0.0 1.6 0.00 0.00 0.00 86 1017.6
20260507075926 14 236 0.0 1.6 0.00 0.00 0.00 86 1017.7
20260507075827 14 236 0.0 1.6 0.00 0.00 0.00 86 1017.6
20260507075727 14 236 0.0 1.6 0.00 0.00 0.00 86 1017.6
20260507075633 14 236 0.0 1.6 0.00 0.00 0.00 86 1017.6
20260507075527 14 236 0.0 1.6 0.00 0.00 0.00 86 1017.6
20260507075427 14 236 0.0 1.6 0.00 0.00 0.00 86 1017.6
20260507075327 14 236 0.0 1.6 0.00 0.00 0.00 85 1017.6
20260507075227 14 236 0.0 1.6 0.00 0.00 0.00 85 1017.6
20260507075128 14 236 0.0 1.6 0.00 0.00 0.00 85 1017.6
20260507075023 14 236 0.0 1.6 0.00 0.00 0.00 85 1017.6
20260507074924 14 236 0.0 1.6 0.00 0.00 0.00 85 1017.6
20260507074823 14 236 0.0 1.6 0.00 0.00 0.00 85 1017.6
20260507074723 14 236 0.0 1.6 0.00 0.00 0.00 85 1017.6
20260507074625 14 236 0.0 1.6 0.00 0.00 0.00 85 1017.6
20260507074522 14 236 0.0 1.6 0.00 0.00 0.00 85 1017.6
20260507074423 14 236 0.0 1.6 0.00 0.00 0.00 85 1017.6
20260507074323 14 236 0.0 1.6 0.00 0.00 0.00 85 1017.6
20260507074223 14 236 0.0 1.6 0.00 0.00 0.00 85 1017.6
20260507074125 14 236 0.0 1.6 0.00 0.00 0.00 85 1017.6
20260507074023 14 236 0.0 1.6 0.00 0.00 0.00 84 1017.6
20260507073923 15 236 0.0 1.6 0.00 0.00 0.00 84 1017.6
20260507073823 15 237 0.0 1.6 0.00 0.00 0.00 84 1017.6
20260507073723 15 237 0.0 1.6 0.00 0.00 0.00 84 1017.6
20260507073624 15 236 0.0 1.6 0.00 0.00 0.00 84 1017.6
20260507073523 15 236 0.0 1.6 0.00 0.00 0.00 84 1017.6
20260507073424 15 236 0.0 1.6 0.00 0.00 0.00 84 1017.5
20260507073323 15 236 0.0 1.6 0.00 0.00 0.00 84 1017.6
20260507073223 15 236 0.0 1.6 0.00 0.00 0.00 83 1017.5
20260507073119 15 236 0.0 1.6 0.00 0.00 0.00 83 1017.6
20260507073018 15 236 0.0 3.2 0.00 0.00 0.00 83 1017.6
20260507072919 15 236 0.0 4.8 0.00 0.00 0.00 83 1017.5
20260507072819 15 236 0.0 6.4 0.00 0.00 0.00 83 1017.5
20260507072719 15 236 1.6 6.4 0.00 0.00 0.00 83 1017.5
20260507072619 15 236 1.6 6.4 0.00 0.00 0.00 83 1017.6
20260507072520 15 237 1.6 6.4 0.00 0.00 0.00 83 1017.5
20260507072419 15 236 1.6 6.4 0.00 0.00 0.00 83 1017.5
20260507072319 15 236 1.6 6.4 0.00 0.00 0.00 83 1017.5
20260507072219 15 236 1.6 6.4 0.00 0.00 0.00 83 1017.6
20260507072119 15 236 1.6 6.4 0.00 0.00 0.00 83 1017.6
20260507072019 15 236 1.6 6.4 0.00 0.00 0.00 83 1017.5
20260507071919 15 236 1.6 8.0 0.00 0.00 0.00 83 1017.6
20260507071819 15 210 1.6 8.0 0.00 0.00 0.00 83 1017.6
20260507071718 15 210 1.6 8.0 0.00 0.00 0.00 83 1017.6
20260507071619 15 203 1.6 8.0 0.00 0.00 0.00 83 1017.6
20260507071519 15 240 3.2 8.0 0.00 0.00 0.00 83 1017.6
20260507071419 15 228 3.2 8.0 0.00 0.00 0.00 82 1017.6
20260507071318 15 228 3.2 8.0 0.00 0.00 0.00 82 1017.6
20260507071215 15 228 3.2 8.0 0.00 0.00 0.00 82 1017.6
20260507071116 15 228 3.2 8.0 0.00 0.00 0.00 82 1017.6
20260507071016 15 236 3.2 8.0 0.00 0.00 0.00 82 1017.6
20260507070915 15 221 3.2 11.3 0.00 0.00 0.00 82 1017.6
20260507070815 15 221 4.8 11.3 0.00 0.00 0.00 82 1017.6
20260507070718 15 205 4.8 11.3 0.00 0.00 0.00 82 1017.6
20260507070621 15 218 4.8 14.5 0.00 0.00 0.00 82 1017.5
20260507070615 15 239 4.8 14.5 0.00 0.00 0.00 82 1017.5
20260507070515 15 225 4.8 14.5 0.00 0.00 0.00 82 1017.6
20260507070415 15 213 6.4 14.5 0.00 0.00 0.00 82 1017.6
20260507070341 15 219 6.4 14.5 0.00 0.00 0.00 82 1017.5
20260507070314 15 218 6.4 14.5 0.00 0.00 0.00 82 1017.6
20260507070232 15 221 6.4 14.5 0.00 0.00 0.00 82 1017.5
20260507070115 15 219 6.4 14.5 0.00 0.00 0.00 82 1017.5
20260507070015 15 225 6.4 14.5 0.00 0.00 0.00 82 1017.6
20260507065916 15 218 6.4 14.5 0.00 0.00 0.00 82 1017.5
20260507065816 15 235 4.8 14.5 0.00 0.00 0.00 82 1017.6
20260507065716 15 231 4.8 14.5 0.00 0.00 0.00 82 1017.5
20260507065622 15 212 4.8 12.9 0.00 0.00 0.00 82 1017.5
20260507065615 15 236 4.8 12.9 0.00 0.00 0.00 82 1017.5
20260507065515 15 206 3.2 12.9 0.00 0.00 0.00 82 1017.5
20260507065415 15 238 3.2 9.7 0.00 0.00 0.00 82 1017.6
20260507065309 15 148 3.2 9.7 0.00 0.00 0.00 82 1017.5
20260507065207 15 228 3.2 9.7 0.00 0.00 0.00 82 1017.6
20260507065107 15 219 3.2 9.7 0.00 0.00 0.00 82 1017.6
20260507065007 15 238 3.2 9.7 0.00 0.00 0.00 82 1017.6
20260507064909 15 242 3.2 9.7 0.00 0.00 0.00 81 1017.5
20260507064803 15 223 3.2 9.7 0.00 0.00 0.00 81 1017.6
20260507064703 15 224 4.8 16.1 0.00 0.00 0.00 81 1017.5
20260507064617 15 236 4.8 16.1 0.00 0.00 0.00 81 1017.5
20260507064601 15 236 4.8 16.1 0.00 0.00 0.00 81 1017.5
20260507064502 15 228 4.8 16.1 0.00 0.00 0.00 81 1017.5
20260507064359 15 242 4.8 16.1 0.00 0.00 0.00 81 1017.5
20260507064253 15 238 4.8 16.1 0.00 0.00 0.00 81 1017.5
20260507064153 15 219 4.8 16.1 0.00 0.00 0.00 81 1017.5
20260507064118 15 232 4.8 16.1 0.00 0.00 0.00 81 1017.4
20260507064053 15 225 4.8 16.1 0.00 0.00 0.00 81 1017.4
20260507063951 15 232 4.8 16.1 0.00 0.00 0.00 81 1017.4
20260507063851 15 238 4.8 16.1 0.00 0.00 0.00 81 1017.5
20260507063747 15 239 4.8 16.1 0.00 0.00 0.00 81 1017.5
20260507063647 15 229 3.2 11.3 0.00 0.00 0.00 81 1017.5
20260507063617 15 231 3.2 11.3 0.00 0.00 0.00 81 1017.4
20260507063547 15 233 3.2 11.3 0.00 0.00 0.00 81 1017.4
20260507063447 16 186 4.8 11.3 0.00 0.00 0.00 81 1017.5
20260507063348 16 216 3.2 9.7 0.00 0.00 0.00 81 1017.5
20260507063339 16 233 3.2 9.7 0.00 0.00 0.00 81 1017.4
20260507063239 16 266 3.2 9.7 0.00 0.00 0.00 81 1017.5
20260507063228 16 236 3.2 9.7 0.00 0.00 0.00 81 1017.4
20260507063039 16 225 3.2 9.7 0.00 0.00 0.00 81 1017.4
20260507062937 16 238 3.2 9.7 0.00 0.00 0.00 81 1017.4
20260507062837 16 238 3.2 9.7 0.00 0.00 0.00 80 1017.4
20260507062734 16 235 3.2 9.7 0.00 0.00 0.00 80 1017.5
20260507062631 16 252 3.2 9.7 0.00 0.00 0.00 80 1017.5
20260507062617 16 233 3.2 11.3 0.00 0.00 0.00 80 1017.5
20260507062531 16 233 4.8 11.3 0.00 0.00 0.00 80 1017.4
20260507062432 16 238 4.8 11.3 0.00 0.00 0.00 80 1017.4
20260507062331 16 235 4.8 12.9 0.00 0.00 0.00 80 1017.4
20260507062225 16 255 4.8 16.1 0.00 0.00 0.00 80 1017.4
20260507062125 16 238 4.8 16.1 0.00 0.00 0.00 80 1017.4
20260507062114 16 256 4.8 16.1 0.00 0.00 0.00 80 1017.4
20260507062025 16 236 6.4 16.1 0.00 0.00 0.00 80 1017.4
20260507061925 16 238 6.4 16.1 0.00 0.00 0.00 80 1017.4
20260507061839 16 259 6.4 16.1 0.00 0.00 0.00 80 1017.4
20260507061823 16 238 6.4 16.1 0.00 0.00 0.00 80 1017.5
20260507061737 16 225 6.4 16.1 0.00 0.00 0.00 80 1017.4
20260507061725 16 239 6.4 16.1 0.00 0.00 0.00 80 1017.4
20260507061521 16 201 4.8 16.1 0.00 0.00 0.00 80 1017.5
20260507061421 16 242 4.8 16.1 0.00 0.00 0.00 80 1017.5
20260507061321 16 259 4.8 14.5 0.00 0.00 0.00 80 1017.5
20260507061222 16 262 4.8 14.5 0.00 0.00 0.00 80 1017.5
20260507061116 16 235 4.8 14.5 0.00 0.00 0.00 80 1017.5
20260507061019 16 235 4.8 14.5 0.00 0.00 0.00 80 1017.5
20260507060919 16 195 4.8 14.5 0.00 0.00 0.00 80 1017.5
20260507060819 16 242 4.8 14.5 0.00 0.00 0.00 80 1017.5
20260507060719 16 197 4.8 14.5 0.00 0.00 0.00 80 1017.5
20260507060625 16 236 3.2 14.5 0.00 0.00 0.00 80 1017.4
20260507060615 16 214 3.2 14.5 0.00 0.00 0.00 80 1017.4
20260507060525 16 226 3.2 14.5 0.00 0.00 0.00 80 1017.5
20260507060418 16 193 3.2 14.5 0.00 0.00 0.00 80 1017.4
20260507060317 16 225 3.2 9.7 0.00 0.00 0.00 79 1017.5
20260507060218 16 225 3.2 9.7 0.00 0.00 0.00 80 1017.5
20260507060121 16 212 3.2 9.7 0.00 0.00 0.00 79 1017.5
20260507060018 16 222 3.2 9.7 0.00 0.00 0.00 80 1017.4
20260507055917 16 198 3.2 9.7 0.00 0.00 0.00 80 1017.4
20260507055835 16 230 4.8 9.7 0.00 0.00 0.00 79 1017.4